Observation data for Clyde on 04/16/2021      Previous  Date  Next       Current Mesonet Observations  Soil Data  Daily Summary Page  Observations in Plain Language
KCL2 160500Z 10009KT 12/12 A2988 RMK A01 T01160116  RH  100%=      5-min Rain = 0
KCL2 160501Z 11010KT 12/12 A2987 RMK A01 T01160116  RH  100%=      5-min Rain = 0
KCL2 160502Z 10008KT 12/12 A2987 RMK A01 T01160116  RH  100%=      5-min Rain = 0
KCL2 160503Z 11007KT 12/12 A2987 RMK A01 T01160116  RH  100%=      5-min Rain = 0
KCL2 160504Z 11007KT 12/12 A2987 RMK A01 T01160116  RH  100%=      5-min Rain = 0
KCL2 160505Z 12008KT 12/12 A2987 RMK A01 T01160116  RH  100%=      5-min Rain = 0
KCL2 160506Z 11009KT 12/12 A2987 RMK A01 T01160116  RH  100%=      5-min Rain = 0
KCL2 160507Z 11009KT 12/12 A2987 RMK A01 T01160116  RH  100%=      5-min Rain = 0
KCL2 160508Z 11007KT 12/12 A2987 RMK A01 T01160116  RH  100%=      5-min Rain = 0
KCL2 160509Z 12006KT 12/12 A2987 RMK A01 T01160116  RH  100%=      5-min Rain = 0
KCL2 160510Z 11009KT 12/12 A2987 RMK A01 T01160116  RH  100%=      5-min Rain = 0
KCL2 160511Z 11007KT 12/12 A2987 RMK A01 T01160116  RH  100%=      5-min Rain = 0
KCL2 160512Z 12008KT 12/12 A2987 RMK A01 T01160116  RH  100%=      5-min Rain = 0
KCL2 160513Z 11008KT 12/12 A2988 RMK A01 T01160116  RH  100%=      5-min Rain = 0
KCL2 160514Z 12009KT 12/12 A2988 RMK A01 T01160116  RH  100%=      5-min Rain = 0
KCL2 160515Z 12007KT 12/12 A2987 RMK A01 T01160116  RH  100%=      5-min Rain = 0
KCL2 160516Z 11008KT 12/12 A2987 RMK A01 T01160116  RH  100%=      5-min Rain = 0
KCL2 160517Z 11007KT 12/12 A2987 RMK A01 T01160116  RH  100%=      5-min Rain = 0
KCL2 160518Z 12009KT 12/12 A2987 RMK A01 T01160116  RH  100%=      5-min Rain = 0
KCL2 160519Z 11007KT 12/12 A2987 RMK A01 T01160116  RH  100%=      5-min Rain = 0
KCL2 160520Z 12008KT 12/12 A2987 RMK A01 T01160116  RH  100%=      5-min Rain = 0
KCL2 160521Z 11006KT 12/12 A2987 RMK A01 T01160116  RH  100%=      5-min Rain = 0
KCL2 160522Z 11008KT 12/12 A2987 RMK A01 T01160116  RH  100%=      5-min Rain = 0
KCL2 160523Z 12008KT 12/12 A2987 RMK A01 T01160116  RH  100%=      5-min Rain = 0
KCL2 160524Z 12007KT 12/12 A2988 RMK A01 T01160116  RH  100%=      5-min Rain = 0
KCL2 160525Z 12006KT 12/12 A2987 RMK A01 T01160116  RH  100%=      5-min Rain = 0
KCL2 160526Z 12008KT 12/12 A2987 RMK A01 T01160116  RH  100%=      5-min Rain = 0
KCL2 160527Z 11008KT 12/12 A2987 RMK A01 T01160116  RH  100%=      5-min Rain = 0
KCL2 160528Z 11009KT 12/12 A2987 RMK A01 T01160116  RH  100%=      5-min Rain = 0
KCL2 160529Z 12009KT 12/12 A2987 RMK A01 T01160116  RH  100%=      5-min Rain = 0
KCL2 160530Z 11010KT 12/12 A2987 RMK A01 T01160116  RH  100%=      5-min Rain = 0
KCL2 160531Z 12012KT 12/12 A2987 RMK A01 T01160116  RH  100%=      5-min Rain = 0
KCL2 160532Z 12010KT 12/12 A2987 RMK A01 T01160116  RH  100%=      5-min Rain = 0
KCL2 160533Z 12009KT 12/12 A2987 RMK A01 T01160116  RH  100%=      5-min Rain = 0
KCL2 160534Z 13010KT 12/12 A2987 RMK A01 T01160116  RH  100%=      5-min Rain = 0
KCL2 160535Z 12011KT 12/12 A2987 RMK A01 T01160116  RH  100%=      5-min Rain = 0
KCL2 160536Z 12009KT 12/12 A2987 RMK A01 T01160116  RH  100%=      5-min Rain = 0
KCL2 160537Z 13008KT 12/12 A2987 RMK A01 T01160116  RH  100%=      5-min Rain = 0
KCL2 160538Z 13009KT 12/12 A2987 RMK A01 T01160116  RH  100%=      5-min Rain = 0
KCL2 160539Z 12010KT 12/12 A2987 RMK A01 T01160116  RH  100%=      5-min Rain = 0
KCL2 160540Z 12011KT 12/12 A2987 RMK A01 T01160116  RH  100%=      5-min Rain = 0
KCL2 160541Z 12010KT 12/12 A2987 RMK A01 T01150115  RH  100%=      5-min Rain = 0
KCL2 160542Z 12010KT 12/12 A2987 RMK A01 T01150116  RH  100%=      5-min Rain = 0
KCL2 160543Z 12008KT 12/12 A2987 RMK A01 T01150116  RH  100%=      5-min Rain = 0
KCL2 160544Z 12008KT 12/12 A2987 RMK A01 T01160116  RH  100%=      5-min Rain = 0
KCL2 160545Z 12008KT 12/12 A2987 RMK A01 T01150115  RH  100%=      5-min Rain = 0
KCL2 160546Z 12008KT 12/12 A2987 RMK A01 T01150116  RH  100%=      5-min Rain = 0
KCL2 160547Z 12008KT 12/12 A2987 RMK A01 T01150115  RH  100%=      5-min Rain = 0
KCL2 160548Z 12009KT 12/12 A2987 RMK A01 T01150116  RH  100%=      5-min Rain = 0
KCL2 160549Z 12008KT 12/12 A2987 RMK A01 T01160116  RH  100%=      5-min Rain = 0
KCL2 160550Z 12007KT 12/12 A2987 RMK A01 T01150115  RH  100%=      5-min Rain = 0
KCL2 160551Z 12006KT 12/12 A2987 RMK A01 T01150115  RH  100%=      5-min Rain = 0
KCL2 160552Z 11007KT 12/12 A2987 RMK A01 T01150116  RH  100%=      5-min Rain = 0
KCL2 160553Z 12007KT 12/12 A2988 RMK A01 T01160116  RH  100%=      5-min Rain = 0
KCL2 160554Z 12008KT 12/12 A2988 RMK A01 T01160116  RH  100%=      5-min Rain = 0
KCL2 160555Z 11006KT 12/12 A2988 RMK A01 T01160116  RH  100%=      5-min Rain = 0
KCL2 160556Z 11006KT 12/12 A2988 RMK A01 T01160116  RH  100%=      5-min Rain = 0
KCL2 160557Z 11006KT 12/12 A2988 RMK A01 T01160116  RH  100%=      5-min Rain = 0
KCL2 160558Z 11006KT 12/12 A2988 RMK A01 T01160116  RH  100%=      5-min Rain = 0
KCL2 160559Z 11006KT 12/12 A2988 RMK A01 T01160116  RH  100%=      5-min Rain = 0
KCL2 160600Z 12004KT 12/12 A2988 RMK A01 T01160116  RH  100%=      5-min Rain = 0
KCL2 160601Z 12006KT 12/12 A2988 RMK A01 T01160116  RH  100%=      5-min Rain = 0
KCL2 160602Z 11006KT 12/12 A2988 RMK A01 T01160116  RH  100%=      5-min Rain = 0
KCL2 160603Z 11005KT 12/12 A2988 RMK A01 T01160116  RH  100%=      5-min Rain = 0
KCL2 160604Z 11005KT 12/12 A2988 RMK A01 T01160116  RH  100%=      5-min Rain = 0
KCL2 160605Z 11005KT 12/12 A2987 RMK A01 T01160116  RH  100%=      5-min Rain = 0
KCL2 160606Z 11006KT 12/12 A2987 RMK A01 T01160116  RH  100%=      5-min Rain = 0
KCL2 160607Z 11004KT 12/12 A2987 RMK A01 T01160116  RH  100%=      5-min Rain = 0
KCL2 160608Z 10004KT 12/12 A2987 RMK A01 T01160116  RH  100%=      5-min Rain = 0
KCL2 160609Z 10007KT 12/12 A2987 RMK A01 T01160116  RH  100%=      5-min Rain = 0
KCL2 160610Z 10005KT 12/12 A2988 RMK A01 T01160116  RH  100%=      5-min Rain = 0
KCL2 160611Z 10007KT 12/12 A2988 RMK A01 T01160116  RH  100%=      5-min Rain = 0
KCL2 160612Z 11007KT 12/12 A2988 RMK A01 T01160116  RH  100%=      5-min Rain = 0
KCL2 160613Z 10005KT 12/12 A2988 RMK A01 T01160116  RH  100%=      5-min Rain = 0
KCL2 160614Z 10006KT 12/12 A2988 RMK A01 T01160116  RH  100%=      5-min Rain = 0
KCL2 160615Z 10005KT 12/12 A2988 RMK A01 T01160116  RH  100%=      5-min Rain = 0
KCL2 160616Z 10007KT 12/12 A2988 RMK A01 T01160116  RH  100%=      5-min Rain = 0
KCL2 160617Z 11006KT 12/12 A2988 RMK A01 T01160116  RH  100%=      5-min Rain = 0
KCL2 160618Z 10005KT 12/12 A2988 RMK A01 T01160116  RH  100%=      5-min Rain = 0
KCL2 160619Z 10005KT 12/12 A2988 RMK A01 T01160116  RH  100%=      5-min Rain = 0
KCL2 160620Z 10006KT 12/12 A2988 RMK A01 T01160116  RH  100%=      5-min Rain = 0
KCL2 160621Z 10007KT 12/12 A2987 RMK A01 T01160116  RH  100%=      5-min Rain = 0
KCL2 160622Z 10006KT 12/12 A2987 RMK A01 T01160116  RH  100%=      5-min Rain = 0
KCL2 160623Z 10006KT 12/12 A2987 RMK A01 T01160116  RH  100%=      5-min Rain = 0
KCL2 160624Z 10006KT 12/12 A2987 RMK A01 T01160116  RH  100%=      5-min Rain = 0
KCL2 160625Z 10005KT 12/12 A2987 RMK A01 T01170117  RH  100%=      5-min Rain = 0
KCL2 160626Z 10005KT 12/12 A2987 RMK A01 T01160116  RH  100%=      5-min Rain = 0
KCL2 160627Z 10005KT 12/12 A2987 RMK A01 T01160116  RH  100%=      5-min Rain = 0
KCL2 160628Z 11006KT 12/12 A2987 RMK A01 T01170117  RH  100%=      5-min Rain = 0
KCL2 160629Z 11005KT 12/12 A2987 RMK A01 T01170117  RH  100%=      5-min Rain = 0
KCL2 160630Z 10005KT 12/12 A2987 RMK A01 T01170117  RH  100%=      5-min Rain = 0
KCL2 160631Z 11006KT 12/12 A2987 RMK A01 T01170117  RH  100%=      5-min Rain = 0
KCL2 160632Z 11005KT 12/12 A2987 RMK A01 T01170117  RH  100%=      5-min Rain = 0
KCL2 160633Z 10004KT 12/12 A2987 RMK A01 T01170117  RH  100%=      5-min Rain = 0
KCL2 160634Z 11006KT 12/12 A2987 RMK A01 T01170117  RH  100%=      5-min Rain = 0
KCL2 160635Z 11006KT 12/12 A2987 RMK A01 T01170117  RH  100%=      5-min Rain = 0
KCL2 160636Z 11007KT 12/12 A2987 RMK A01 T01170117  RH  100%=      5-min Rain = 0
KCL2 160637Z 11006KT 12/12 A2987 RMK A01 T01170117  RH  100%=      5-min Rain = 0
KCL2 160638Z 12006KT 12/12 A2987 RMK A01 T01170117  RH  100%=      5-min Rain = 0
KCL2 160639Z 12006KT 12/12 A2987 RMK A01 T01170117  RH  100%=      5-min Rain = 0
KCL2 160640Z 12005KT 12/12 A2987 RMK A01 T01170117  RH  100%=      5-min Rain = 0
KCL2 160641Z 11005KT 12/12 A2987 RMK A01 T01170117  RH  100%=      5-min Rain = 0
KCL2 160642Z 12005KT 12/12 A2987 RMK A01 T01170117  RH  100%=      5-min Rain = 0
KCL2 160643Z 13006KT 12/12 A2986 RMK A01 T01170117  RH  100%=      5-min Rain = 0
KCL2 160644Z 12007KT 12/12 A2986 RMK A01 T01170117  RH  100%=      5-min Rain = 0
KCL2 160645Z 12007KT 12/12 A2986 RMK A01 T01170117  RH  100%=      5-min Rain = 0
KCL2 160646Z 12007KT 12/12 A2986 RMK A01 T01170118  RH  100%=      5-min Rain = 0
KCL2 160647Z 12006KT 12/12 A2986 RMK A01 T01170117  RH  100%=      5-min Rain = 0
KCL2 160648Z 12007KT 12/12 A2986 RMK A01 T01170117  RH  100%=      5-min Rain = 0
KCL2 160649Z 12007KT 12/12 A2986 RMK A01 T01170117  RH  100%=      5-min Rain = 0
KCL2 160650Z 12007KT 12/12 A2986 RMK A01 T01170117  RH  100%=      5-min Rain = 0
KCL2 160651Z 12008KT 12/12 A2986 RMK A01 T01170117  RH  100%=      5-min Rain = 0
KCL2 160652Z 12005KT 12/12 A2986 RMK A01 T01170117  RH  100%=      5-min Rain = 0
KCL2 160653Z 12005KT 12/12 A2986 RMK A01 T01170117  RH  100%=      5-min Rain = 0
KCL2 160654Z 12005KT 12/12 A2986 RMK A01 T01170117  RH  100%=      5-min Rain = 0
KCL2 160655Z 12006KT 12/12 A2986 RMK A01 T01170117  RH  100%=      5-min Rain = 0
KCL2 160656Z 11006KT 12/12 A2986 RMK A01 T01170117  RH  100%=      5-min Rain = 0
KCL2 160657Z 12007KT 12/12 A2986 RMK A01 T01170117  RH  100%=      5-min Rain = 0
KCL2 160658Z 13007KT 12/12 A2986 RMK A01 T01170117  RH  100%=      5-min Rain = 0
KCL2 160659Z 12008KT 12/12 A2986 RMK A01 T01170117  RH  100%=      5-min Rain = 0
KCL2 160700Z 12008KT 12/12 A2986 RMK A01 T01170117  RH  100%=      5-min Rain = 0
KCL2 160701Z 12006KT 12/12 A2986 RMK A01 T01170117  RH  100%=      5-min Rain = 0
KCL2 160702Z 12006KT 12/12 A2986 RMK A01 T01170117  RH  100%=      5-min Rain = 0
KCL2 160703Z 13006KT 12/12 A2986 RMK A01 T01170117  RH  100%=      5-min Rain = 0
KCL2 160704Z 12006KT 12/12 A2986 RMK A01 T01170117  RH  100%=      5-min Rain = 0
KCL2 160705Z 12007KT 12/12 A2986 RMK A01 T01170117  RH  100%=      5-min Rain = 0
KCL2 160706Z 12005KT 12/12 A2986 RMK A01 T01170117  RH  100%=      5-min Rain = 0
KCL2 160707Z 12005KT 12/12 A2986 RMK A01 T01170117  RH  100%=      5-min Rain = 0
KCL2 160708Z 12005KT 12/12 A2986 RMK A01 T01170117  RH  100%=      5-min Rain = 0
KCL2 160709Z 13004KT 12/12 A2986 RMK A01 T01170117  RH  100%=      5-min Rain = 0
KCL2 160710Z 12005KT 12/12 A2986 RMK A01 T01170117  RH  100%=      5-min Rain = 0
KCL2 160711Z 13004KT 12/12 A2986 RMK A01 T01170117  RH  100%=      5-min Rain = 0
KCL2 160712Z 12003KT 12/12 A2986 RMK A01 T01170117  RH  100%=      5-min Rain = 0
KCL2 160713Z 13003KT 12/12 A2986 RMK A01 T01170117  RH  100%=      5-min Rain = 0
KCL2 160714Z 12005KT 12/12 A2986 RMK A01 T01170117  RH  100%=      5-min Rain = 0
KCL2 160715Z 12004KT 12/12 A2986 RMK A01 T01170117  RH  100%=      5-min Rain = 0
KCL2 160716Z 13005KT 12/12 A2986 RMK A01 T01170117  RH  100%=      5-min Rain = 0
KCL2 160717Z 13005KT 12/12 A2986 RMK A01 T01180118  RH  100%=      5-min Rain = 0
KCL2 160718Z 11005KT 12/12 A2985 RMK A01 T01180118  RH  100%=      5-min Rain = 0
KCL2 160719Z 11003KT 12/12 A2985 RMK A01 T01180118  RH  100%=      5-min Rain = 0
KCL2 160720Z 12004KT 12/12 A2986 RMK A01 T01180118  RH  100%=      5-min Rain = 0
KCL2 160721Z 12004KT 12/12 A2986 RMK A01 T01180118  RH  100%=      5-min Rain = 0
KCL2 160722Z 11004KT 12/12 A2986 RMK A01 T01180118  RH  100%=      5-min Rain = 0
KCL2 160723Z 12004KT 12/12 A2986 RMK A01 T01180118  RH  100%=      5-min Rain = 0
KCL2 160724Z 12004KT 12/12 A2986 RMK A01 T01180118  RH  100%=      5-min Rain = 0
KCL2 160725Z 12003KT 12/12 A2986 RMK A01 T01180118  RH  100%=      5-min Rain = 0
KCL2 160726Z 11004KT 12/12 A2986 RMK A01 T01180118  RH  100%=      5-min Rain = 0
KCL2 160727Z 11004KT 12/12 A2986 RMK A01 T01180118  RH  100%=      5-min Rain = 0
KCL2 160728Z 12005KT 12/12 A2986 RMK A01 T01180118  RH  100%=      5-min Rain = 0
KCL2 160729Z 11005KT 12/12 A2986 RMK A01 T01180118  RH  100%=      5-min Rain = 0
KCL2 160730Z 12005KT 12/12 A2985 RMK A01 T01180118  RH  100%=      5-min Rain = 0
KCL2 160731Z 12006KT 12/12 A2985 RMK A01 T01180118  RH  100%=      5-min Rain = 0
KCL2 160732Z 12005KT 12/12 A2985 RMK A01 T01180118  RH  100%=      5-min Rain = 0
KCL2 160733Z 12004KT 12/12 A2985 RMK A01 T01180118  RH  100%=      5-min Rain = 0
KCL2 160734Z 11003KT 12/12 A2985 RMK A01 T01180118  RH  100%=      5-min Rain = 0
KCL2 160735Z 12004KT 12/12 A2985 RMK A01 T01180118  RH  100%=      5-min Rain = 0
KCL2 160736Z 12003KT 12/12 A2985 RMK A01 T01180118  RH  100%=      5-min Rain = 0
KCL2 160737Z 11004KT 12/12 A2985 RMK A01 T01180118  RH  100%=      5-min Rain = 0
KCL2 160738Z 11004KT 12/12 A2985 RMK A01 T01180118  RH  100%=      5-min Rain = 0
KCL2 160739Z 11005KT 12/12 A2985 RMK A01 T01180118  RH  100%=      5-min Rain = 0
KCL2 160740Z 11003KT 12/12 A2985 RMK A01 T01180118  RH  100%=      5-min Rain = 0
KCL2 160741Z 11004KT 12/12 A2985 RMK A01 T01180118  RH  100%=      5-min Rain = 0
KCL2 160742Z 11004KT 12/12 A2985 RMK A01 T01180118  RH  100%=      5-min Rain = 0
KCL2 160743Z 11003KT 12/12 A2985 RMK A01 T01180118  RH  100%=      5-min Rain = 0
KCL2 160744Z 12003KT 12/12 A2985 RMK A01 T01180118  RH  100%=      5-min Rain = 0
KCL2 160745Z 13003KT 12/12 A2985 RMK A01 T01190119  RH  100%=      5-min Rain = 0
KCL2 160746Z 12005KT 12/12 A2985 RMK A01 T01190119  RH  100%=      5-min Rain = 0
KCL2 160747Z 12006KT 12/12 A2985 RMK A01 T01190119  RH  100%=      5-min Rain = 0
KCL2 160748Z 12005KT 12/12 A2985 RMK A01 T01190119  RH  100%=      5-min Rain = 0
KCL2 160749Z 12005KT 12/12 A2985 RMK A01 T01180119  RH  100%=      5-min Rain = 0
KCL2 160750Z 13004KT 12/12 A2985 RMK A01 T01190119  RH  100%=      5-min Rain = 0
KCL2 160751Z 13005KT 12/12 A2985 RMK A01 T01180119  RH  100%=      5-min Rain = 0
KCL2 160752Z 12004KT 12/12 A2985 RMK A01 T01190119  RH  100%=      5-min Rain = 0
KCL2 160753Z 12004KT 12/12 A2985 RMK A01 T01190119  RH  100%=      5-min Rain = 0
KCL2 160754Z 13004KT 12/12 A2984 RMK A01 T01180119  RH  100%=      5-min Rain = 0
KCL2 160755Z 13004KT 12/12 A2984 RMK A01 T01190119  RH  100%=      5-min Rain = 0
KCL2 160756Z 13005KT 12/12 A2985 RMK A01 T01190119  RH  100%=      5-min Rain = 0
KCL2 160757Z 12004KT 12/12 A2985 RMK A01 T01180119  RH  100%=      5-min Rain = 0
KCL2 160758Z 13004KT 12/12 A2985 RMK A01 T01190119  RH  100%=      5-min Rain = 0
KCL2 160759Z 12005KT 12/12 A2985 RMK A01 T01190119  RH  100%=      5-min Rain = 0
KCL2 160800Z 13004KT 12/12 A2985 RMK A01 T01190119  RH  100%=      5-min Rain = 0
KCL2 160801Z 13003KT 12/12 A2984 RMK A01 T01190119  RH  100%=      5-min Rain = 0
KCL2 160802Z 13004KT 12/12 A2984 RMK A01 T01190119  RH  100%=      5-min Rain = 0
KCL2 160803Z 13003KT 12/12 A2984 RMK A01 T01190119  RH  100%=      5-min Rain = 0
KCL2 160804Z 13004KT 12/12 A2984 RMK A01 T01190119  RH  100%=      5-min Rain = 0
KCL2 160805Z 13005KT 12/12 A2984 RMK A01 T01190119  RH  100%=      5-min Rain = 0
KCL2 160806Z 13005KT 12/12 A2984 RMK A01 T01190119  RH  100%=      5-min Rain = 0
KCL2 160807Z 13005KT 12/12 A2984 RMK A01 T01190119  RH  100%=      5-min Rain = 0
KCL2 160808Z 13005KT 12/12 A2984 RMK A01 T01190119  RH  100%=      5-min Rain = 0
KCL2 160809Z 13006KT 12/12 A2984 RMK A01 T01190119  RH  100%=      5-min Rain = 0
KCL2 160810Z 13004KT 12/12 A2984 RMK A01 T01180119  RH  100%=      5-min Rain = 0
KCL2 160811Z 12005KT 12/12 A2984 RMK A01 T01190119  RH  100%=      5-min Rain = 0
KCL2 160812Z 12006KT 12/12 A2984 RMK A01 T01190119  RH  100%=      5-min Rain = 0
KCL2 160813Z 13005KT 12/12 A2983 RMK A01 T01190119  RH  100%=      5-min Rain = 0
KCL2 160814Z 12005KT 12/12 A2983 RMK A01 T01190119  RH  100%=      5-min Rain = 0
KCL2 160815Z 12006KT 12/12 A2984 RMK A01 T01190119  RH  100%=      5-min Rain = 0
KCL2 160816Z 13005KT 12/12 A2984 RMK A01 T01190119  RH  100%=      5-min Rain = 0
KCL2 160817Z 13005KT 12/12 A2984 RMK A01 T01190119  RH  100%=      5-min Rain = 0
KCL2 160818Z 13006KT 12/12 A2984 RMK A01 T01190119  RH  100%=      5-min Rain = 0
KCL2 160819Z 13005KT 12/12 A2984 RMK A01 T01190119  RH  100%=      5-min Rain = 0
KCL2 160820Z 13004KT 12/12 A2984 RMK A01 T01190119  RH  100%=      5-min Rain = 0
KCL2 160821Z 13004KT 12/12 A2984 RMK A01 T01190119  RH  100%=      5-min Rain = 0
KCL2 160822Z 13003KT 12/12 A2984 RMK A01 T01190119  RH  100%=      5-min Rain = 0
KCL2 160823Z 14004KT 12/12 A2984 RMK A01 T01190120  RH  100%=      5-min Rain = 0
KCL2 160824Z 13004KT 12/12 A2984 RMK A01 T01200120  RH  100%=      5-min Rain = 0
KCL2 160825Z 13003KT 12/12 A2984 RMK A01 T01190119  RH  100%=      5-min Rain = 0
KCL2 160826Z 14003KT 12/12 A2984 RMK A01 T01200120  RH  100%=      5-min Rain = 0.01
KCL2 160827Z 14003KT 12/12 A2984 RMK A01 T01200120  RH  100%=      5-min Rain = 0
KCL2 160828Z 13003KT 12/12 A2984 RMK A01 T01200120  RH  100%=      5-min Rain = 0
KCL2 160829Z 12004KT 12/12 A2984 RMK A01 T01190120  RH  100%=      5-min Rain = 0
KCL2 160830Z 12002KT 12/12 A2984 RMK A01 T01200120  RH  100%=      5-min Rain = 0
KCL2 160831Z 13003KT 12/12 A2984 RMK A01 T01200120  RH  100%=      5-min Rain = 0
KCL2 160832Z 12003KT 12/12 A2984 RMK A01 T01200120  RH  100%=      5-min Rain = 0
KCL2 160833Z 14004KT 12/12 A2984 RMK A01 T01200120  RH  100%=      5-min Rain = 0
KCL2 160834Z 13004KT 12/12 A2984 RMK A01 T01200120  RH  100%=      5-min Rain = 0
KCL2 160835Z 14004KT 12/12 A2984 RMK A01 T01200120  RH  100%=      5-min Rain = 0
KCL2 160836Z 13005KT 12/12 A2984 RMK A01 T01200120  RH  100%=      5-min Rain = 0
KCL2 160837Z 13005KT 12/12 A2983 RMK A01 T01200120  RH  100%=      5-min Rain = 0
KCL2 160838Z 13005KT 12/12 A2983 RMK A01 T01200120  RH  100%=      5-min Rain = 0
KCL2 160839Z 13005KT 12/12 A2983 RMK A01 T01200120  RH  100%=      5-min Rain = 0
KCL2 160840Z 12004KT 12/12 A2983 RMK A01 T01210121  RH  100%=      5-min Rain = 0
KCL2 160841Z 12004KT 12/12 A2983 RMK A01 T01210121  RH  100%=      5-min Rain = 0
KCL2 160842Z 13005KT 12/12 A2983 RMK A01 T01210121  RH  100%=      5-min Rain = 0
KCL2 160843Z 12004KT 12/12 A2983 RMK A01 T01200120  RH  100%=      5-min Rain = 0
KCL2 160844Z 13005KT 12/12 A2983 RMK A01 T01200120  RH  100%=      5-min Rain = 0
KCL2 160845Z 13004KT 12/12 A2983 RMK A01 T01200120  RH  100%=      5-min Rain = 0
KCL2 160846Z 14003KT 12/12 A2983 RMK A01 T01210121  RH  100%=      5-min Rain = 0
KCL2 160847Z 14002KT 12/12 A2983 RMK A01 T01210121  RH  100%=      5-min Rain = 0
KCL2 160848Z 13002KT 12/12 A2983 RMK A01 T01210121  RH  100%=      5-min Rain = 0
KCL2 160849Z 13002KT 12/12 A2983 RMK A01 T01210121  RH  100%=      5-min Rain = 0
KCL2 160850Z 14003KT 12/12 A2983 RMK A01 T01210121  RH  100%=      5-min Rain = 0
KCL2 160851Z 14003KT 12/12 A2983 RMK A01 T01210121  RH  100%=      5-min Rain = 0
KCL2 160852Z 13003KT 12/12 A2983 RMK A01 T01210121  RH  100%=      5-min Rain = 0
KCL2 160853Z 13004KT 12/12 A2983 RMK A01 T01210121  RH  100%=      5-min Rain = 0
KCL2 160854Z 12006KT 12/12 A2983 RMK A01 T01210121  RH  100%=      5-min Rain = 0
KCL2 160855Z 12006KT 12/12 A2983 RMK A01 T01210122  RH  100%=      5-min Rain = 0
KCL2 160856Z 13006KT 12/12 A2983 RMK A01 T01210122  RH  100%=      5-min Rain = 0
KCL2 160857Z 13007KT 12/12 A2983 RMK A01 T01210122  RH  100%=      5-min Rain = 0
KCL2 160858Z 13006KT 12/12 A2983 RMK A01 T01210122  RH  100%=      5-min Rain = 0
KCL2 160859Z 13005KT 12/12 A2983 RMK A01 T01210121  RH  100%=      5-min Rain = 0
KCL2 160900Z 13006KT 12/12 A2983 RMK A01 T01220122  RH  100%=      5-min Rain = 0
KCL2 160901Z 14006KT 12/12 A2983 RMK A01 T01220122  RH  100%=      5-min Rain = 0
KCL2 160902Z 13005KT 12/12 A2982 RMK A01 T01220122  RH  100%=      5-min Rain = 0
KCL2 160903Z 13005KT 12/12 A2982 RMK A01 T01220122  RH  100%=      5-min Rain = 0
KCL2 160904Z 13004KT 12/12 A2982 RMK A01 T01220122  RH  100%=      5-min Rain = 0
KCL2 160905Z 13005KT 12/12 A2982 RMK A01 T01220122  RH  100%=      5-min Rain = 0
KCL2 160906Z 13006KT 12/12 A2982 RMK A01 T01220122  RH  100%=      5-min Rain = 0
KCL2 160907Z 13006KT 12/12 A2982 RMK A01 T01220122  RH  100%=      5-min Rain = 0
KCL2 160908Z 14005KT 12/12 A2982 RMK A01 T01220122  RH  100%=      5-min Rain = 0
KCL2 160909Z 13005KT 12/12 A2982 RMK A01 T01220122  RH  100%=      5-min Rain = 0
KCL2 160910Z 14004KT 12/12 A2982 RMK A01 T01220122  RH  100%=      5-min Rain = 0
KCL2 160911Z 13004KT 12/12 A2982 RMK A01 T01230123  RH  100%=      5-min Rain = 0
KCL2 160912Z 14004KT 12/12 A2983 RMK A01 T01230123  RH  100%=      5-min Rain = 0
KCL2 160913Z 14005KT 12/12 A2983 RMK A01 T01230123  RH  100%=      5-min Rain = 0
KCL2 160914Z 14004KT 12/12 A2983 RMK A01 T01230123  RH  100%=      5-min Rain = 0
KCL2 160915Z 14005KT 12/12 A2982 RMK A01 T01230123  RH  100%=      5-min Rain = 0
KCL2 160916Z 14004KT 12/12 A2982 RMK A01 T01230123  RH  100%=      5-min Rain = 0
KCL2 160917Z 14004KT 12/12 A2982 RMK A01 T01230123  RH  100%=      5-min Rain = 0
KCL2 160918Z 14005KT 12/12 A2982 RMK A01 T01230123  RH  100%=      5-min Rain = 0
KCL2 160919Z 14005KT 12/12 A2982 RMK A01 T01230123  RH  100%=      5-min Rain = 0
KCL2 160920Z 15005KT 12/12 A2982 RMK A01 T01230123  RH  100%=      5-min Rain = 0
KCL2 160921Z 15006KT 12/12 A2982 RMK A01 T01230123  RH  100%=      5-min Rain = 0
KCL2 160922Z 14005KT 12/12 A2982 RMK A01 T01230123  RH  100%=      5-min Rain = 0
KCL2 160923Z 14005KT 12/12 A2982 RMK A01 T01230123  RH  100%=      5-min Rain = 0
KCL2 160924Z 13005KT 12/12 A2982 RMK A01 T01230123  RH  100%=      5-min Rain = 0
KCL2 160925Z 14006KT 12/12 A2982 RMK A01 T01230123  RH  100%=      5-min Rain = 0
KCL2 160926Z 13006KT 12/12 A2982 RMK A01 T01230123  RH  100%=      5-min Rain = 0
KCL2 160927Z 14005KT 12/12 A2982 RMK A01 T01230123  RH  100%=      5-min Rain = 0
KCL2 160928Z 13005KT 12/12 A2982 RMK A01 T01240124  RH  100%=      5-min Rain = 0
KCL2 160929Z 13006KT 12/12 A2982 RMK A01 T01240124  RH  100%=      5-min Rain = 0
KCL2 160930Z 13005KT 12/12 A2982 RMK A01 T01240124  RH  100%=      5-min Rain = 0
KCL2 160931Z 13005KT 12/12 A2982 RMK A01 T01240124  RH  100%=      5-min Rain = 0
KCL2 160932Z 13005KT 12/12 A2982 RMK A01 T01240124  RH  100%=      5-min Rain = 0
KCL2 160933Z 13005KT 12/12 A2982 RMK A01 T01240124  RH  100%=      5-min Rain = 0
KCL2 160934Z 13005KT 12/12 A2982 RMK A01 T01240124  RH  100%=      5-min Rain = 0
KCL2 160935Z 14005KT 12/12 A2982 RMK A01 T01240124  RH  100%=      5-min Rain = 0
KCL2 160936Z 13004KT 12/12 A2982 RMK A01 T01240124  RH  100%=      5-min Rain = 0
KCL2 160937Z 13005KT 12/12 A2982 RMK A01 T01240124  RH  100%=      5-min Rain = 0
KCL2 160938Z 14005KT 12/12 A2982 RMK A01 T01240124  RH  100%=      5-min Rain = 0
KCL2 160939Z 14004KT 12/12 A2982 RMK A01 T01240124  RH  100%=      5-min Rain = 0
KCL2 160940Z 14004KT 13/13 A2982 RMK A01 T01250125  RH  100%=      5-min Rain = 0
KCL2 160941Z 14006KT 12/13 A2982 RMK A01 T01240125  RH  100%=      5-min Rain = 0
KCL2 160942Z 14005KT 13/13 A2982 RMK A01 T01250125  RH  100%=      5-min Rain = 0
KCL2 160943Z 14006KT 13/13 A2982 RMK A01 T01250125  RH  100%=      5-min Rain = 0
KCL2 160944Z 13006KT 13/13 A2981 RMK A01 T01250125  RH  100%=      5-min Rain = 0
KCL2 160945Z 14006KT 13/13 A2981 RMK A01 T01250125  RH  100%=      5-min Rain = 0
KCL2 160946Z 14005KT 13/13 A2981 RMK A01 T01250125  RH  100%=      5-min Rain = 0
KCL2 160947Z 14004KT 13/13 A2981 RMK A01 T01250125  RH  100%=      5-min Rain = 0
KCL2 160948Z 13004KT 13/13 A2981 RMK A01 T01250125  RH  100%=      5-min Rain = 0
KCL2 160949Z 15007KT 13/13 A2981 RMK A01 T01250125  RH  100%=      5-min Rain = 0
KCL2 160950Z 14006KT 13/13 A2981 RMK A01 T01250125  RH  100%=      5-min Rain = 0
KCL2 160951Z 14004KT 13/13 A2981 RMK A01 T01250125  RH  100%=      5-min Rain = 0
KCL2 160952Z 14006KT 13/13 A2981 RMK A01 T01250125  RH  100%=      5-min Rain = 0
KCL2 160953Z 15007KT 13/13 A2981 RMK A01 T01250125  RH  100%=      5-min Rain = 0
KCL2 160954Z 14006KT 13/13 A2981 RMK A01 T01260126  RH  100%=      5-min Rain = 0
KCL2 160955Z 14007KT 13/13 A298 RMK A01 T01250125  RH  100%=      5-min Rain = 0
KCL2 160956Z 14006KT 13/13 A2981 RMK A01 T01260126  RH  100%=      5-min Rain = 0
KCL2 160957Z 14007KT 13/13 A2981 RMK A01 T01260126  RH  100%=      5-min Rain = 0
KCL2 160958Z 15007KT 13/13 A2981 RMK A01 T01260126  RH  100%=      5-min Rain = 0
KCL2 160959Z 15007KT 13/13 A2981 RMK A01 T01250125  RH  100%=      5-min Rain = 0
KCL2 161000Z 15005KT 13/13 A2981 RMK A01 T01260126  RH  100%=      5-min Rain = 0
KCL2 161001Z 15008KT 13/13 A2981 RMK A01 T01250125  RH  100%=      5-min Rain = 0
KCL2 161002Z 14006KT 13/13 A2981 RMK A01 T01260126  RH  100%=      5-min Rain = 0
KCL2 161003Z 14006KT 13/13 A298 RMK A01 T01260126  RH  100%=      5-min Rain = 0
KCL2 161004Z 14007KT 13/13 A298 RMK A01 T01260126  RH  100%=      5-min Rain = 0
KCL2 161005Z 14007KT 13/13 A298 RMK A01 T01260126  RH  100%=      5-min Rain = 0
KCL2 161006Z 14008KT 13/13 A298 RMK A01 T01260126  RH  100%=      5-min Rain = 0
KCL2 161007Z 15008KT 13/13 A298 RMK A01 T01260126  RH  100%=      5-min Rain = 0
KCL2 161008Z 15008KT 13/13 A298 RMK A01 T01260126  RH  100%=      5-min Rain = 0
KCL2 161009Z 15009KT 13/13 A298 RMK A01 T01260126  RH  100%=      5-min Rain = 0
KCL2 161010Z 15008KT 13/13 A298 RMK A01 T01260126  RH  100%=      5-min Rain = 0
KCL2 161011Z 15006KT 13/13 A298 RMK A01 T01260126  RH  100%=      5-min Rain = 0
KCL2 161012Z 15006KT 13/13 A298 RMK A01 T01260126  RH  100%=      5-min Rain = 0
KCL2 161013Z 16006KT 13/13 A298 RMK A01 T01260126  RH  100%=      5-min Rain = 0
KCL2 161014Z 15007KT 13/13 A298 RMK A01 T01270127  RH  100%=      5-min Rain = 0
KCL2 161015Z 15008KT 13/13 A298 RMK A01 T01260126  RH  100%=      5-min Rain = 0
KCL2 161016Z 15008KT 13/13 A298 RMK A01 T01270127  RH  100%=      5-min Rain = 0
KCL2 161017Z 15007KT 13/13 A298 RMK A01 T01270127  RH  100%=      5-min Rain = 0
KCL2 161018Z 15009KT 13/13 A298 RMK A01 T01270127  RH  100%=      5-min Rain = 0
KCL2 161019Z 15008KT 13/13 A298 RMK A01 T01260126  RH  100%=      5-min Rain = 0
KCL2 161020Z 14007KT 13/13 A298 RMK A01 T01270127  RH  100%=      5-min Rain = 0
KCL2 161021Z 16008KT 13/13 A298 RMK A01 T01270127  RH  100%=      5-min Rain = 0
KCL2 161022Z 15010KT 13/13 A298 RMK A01 T01270127  RH  100%=      5-min Rain = 0
KCL2 161023Z 15008KT 13/13 A298 RMK A01 T01270127  RH  100%=      5-min Rain = 0
KCL2 161024Z 15007KT 13/13 A298 RMK A01 T01270127  RH  100%=      5-min Rain = 0
KCL2 161025Z 15007KT 13/13 A298 RMK A01 T01270127  RH  100%=      5-min Rain = 0
KCL2 161026Z 15007KT 13/13 A298 RMK A01 T01270127  RH  100%=      5-min Rain = 0
KCL2 161027Z 15009KT 13/13 A298 RMK A01 T01270127  RH  100%=      5-min Rain = 0
KCL2 161028Z 15007KT 13/13 A298 RMK A01 T01270127  RH  100%=      5-min Rain = 0
KCL2 161029Z 14008KT 13/13 A298 RMK A01 T01270127  RH  100%=      5-min Rain = 0
KCL2 161030Z 15007KT 13/13 A298 RMK A01 T01270127  RH  100%=      5-min Rain = 0
KCL2 161031Z 15009KT 13/13 A298 RMK A01 T01270127  RH  100%=      5-min Rain = 0
KCL2 161032Z 15006KT 13/13 A298 RMK A01 T01270128  RH  100%=      5-min Rain = 0
KCL2 161033Z 15008KT 13/13 A298 RMK A01 T01280128  RH  100%=      5-min Rain = 0
KCL2 161034Z 15007KT 13/13 A298 RMK A01 T01270127  RH  100%=      5-min Rain = 0
KCL2 161035Z 16006KT 13/13 A298 RMK A01 T01270127  RH  100%=      5-min Rain = 0
KCL2 161036Z 16007KT 13/13 A298 RMK A01 T01280128  RH  100%=      5-min Rain = 0
KCL2 161037Z 14009KT 13/13 A298 RMK A01 T01270127  RH  100%=      5-min Rain = 0
KCL2 161038Z 14008KT 13/13 A298 RMK A01 T01270127  RH  100%=      5-min Rain = 0
KCL2 161039Z 15007KT 13/13 A2979 RMK A01 T01270127  RH  100%=      5-min Rain = 0
KCL2 161040Z 15007KT 13/13 A2979 RMK A01 T01280128  RH  100%=      5-min Rain = 0
KCL2 161041Z 15006KT 13/13 A2979 RMK A01 T01270128  RH  100%=      5-min Rain = 0
KCL2 161042Z 15007KT 13/13 A2979 RMK A01 T01280128  RH  100%=      5-min Rain = 0
KCL2 161043Z 15008KT 13/13 A2979 RMK A01 T01280128  RH  100%=      5-min Rain = 0
KCL2 161044Z 15008KT 13/13 A2979 RMK A01 T01280128  RH  100%=      5-min Rain = 0
KCL2 161045Z 15009KT 13/13 A2979 RMK A01 T01280128  RH  100%=      5-min Rain = 0
KCL2 161046Z 15007KT 13/13 A2979 RMK A01 T01280128  RH  100%=      5-min Rain = 0
KCL2 161047Z 16008KT 13/13 A2979 RMK A01 T01280128  RH  100%=      5-min Rain = 0
KCL2 161048Z 16008KT 13/13 A2979 RMK A01 T01280128  RH  100%=      5-min Rain = 0
KCL2 161049Z 15010KT 13/13 A2979 RMK A01 T01280128  RH  100%=      5-min Rain = 0
KCL2 161050Z 15008KT 13/13 A2979 RMK A01 T01280128  RH  100%=      5-min Rain = 0
KCL2 161051Z 15009KT 13/13 A2979 RMK A01 T01280128  RH  100%=      5-min Rain = 0
KCL2 161052Z 15011KT 13/13 A2979 RMK A01 T01280128  RH  100%=      5-min Rain = 0
KCL2 161053Z 16009KT 13/13 A2979 RMK A01 T01280128  RH  100%=      5-min Rain = 0
KCL2 161054Z 16009KT 13/13 A2979 RMK A01 T01280128  RH  100%=      5-min Rain = 0
KCL2 161055Z 15008KT 13/13 A2979 RMK A01 T01280128  RH  100%=      5-min Rain = 0
KCL2 161056Z 15006KT 13/13 A2979 RMK A01 T01280128  RH  100%=      5-min Rain = 0
KCL2 161057Z 15010KT 13/13 A2979 RMK A01 T01280128  RH  100%=      5-min Rain = 0
KCL2 161058Z 15009KT 13/13 A2979 RMK A01 T01280128  RH  100%=      5-min Rain = 0
KCL2 161059Z 15009KT 13/13 A2979 RMK A01 T01280128  RH  100%=      5-min Rain = 0
KCL2 161100Z 15010KT 13/13 A2979 RMK A01 T01280128  RH  100%=      5-min Rain = 0
KCL2 161101Z 16008KT 13/13 A2979 RMK A01 T01280128  RH  100%=      5-min Rain = 0
KCL2 161102Z 15008KT 13/13 A2979 RMK A01 T01280128  RH  100%=      5-min Rain = 0
KCL2 161103Z 16007KT 13/13 A2979 RMK A01 T01280128  RH  100%=      5-min Rain = 0
KCL2 161104Z 15008KT 13/13 A2979 RMK A01 T01280128  RH  100%=      5-min Rain = 0
KCL2 161105Z 16007KT 13/13 A2979 RMK A01 T01280128  RH  100%=      5-min Rain = 0
KCL2 161106Z 15009KT 13/13 A2979 RMK A01 T01280128  RH  100%=      5-min Rain = 0
KCL2 161107Z 15009KT 13/13 A2979 RMK A01 T01280129  RH  100%=      5-min Rain = 0
KCL2 161108Z 16010KT 13/13 A2979 RMK A01 T01280128  RH  100%=      5-min Rain = 0
KCL2 161109Z 16009KT 13/13 A2979 RMK A01 T01280129  RH  100%=      5-min Rain = 0
KCL2 161110Z 16010KT 13/13 A2979 RMK A01 T01290129  RH  100%=      5-min Rain = 0
KCL2 161111Z 16009KT 13/13 A2979 RMK A01 T01280128  RH  100%=      5-min Rain = 0
KCL2 161112Z 16008KT 13/13 A2979 RMK A01 T01280129  RH  100%=      5-min Rain = 0
KCL2 161113Z 15008KT 13/13 A2979 RMK A01 T01280128  RH  100%=      5-min Rain = 0
KCL2 161114Z 15011KT 13/13 A2979 RMK A01 T01280128  RH  100%=      5-min Rain = 0
KCL2 161115Z 15011KT 13/13 A2979 RMK A01 T01280128  RH  100%=      5-min Rain = 0
KCL2 161116Z 16010KT 13/13 A2979 RMK A01 T01280129  RH  100%=      5-min Rain = 0
KCL2 161117Z 15009KT 13/13 A2979 RMK A01 T01280128  RH  100%=      5-min Rain = 0
KCL2 161118Z 15008KT 13/13 A2979 RMK A01 T01280128  RH  100%=      5-min Rain = 0
KCL2 161119Z 16009KT 13/13 A2979 RMK A01 T01280128  RH  100%=      5-min Rain = 0
KCL2 161120Z 16009KT 13/13 A2979 RMK A01 T01290129  RH  100%=      5-min Rain = 0
KCL2 161121Z 15008KT 13/13 A2979 RMK A01 T01290129  RH  100%=      5-min Rain = 0
KCL2 161122Z 15009KT 13/13 A298 RMK A01 T01290129  RH  100%=      5-min Rain = 0
KCL2 161123Z 15009KT 13/13 A2979 RMK A01 T01290129  RH  100%=      5-min Rain = 0
KCL2 161124Z 16008KT 13/13 A298 RMK A01 T01290129  RH  100%=      5-min Rain = 0
KCL2 161125Z 16008KT 13/13 A298 RMK A01 T01290129  RH  100%=      5-min Rain = 0
KCL2 161126Z 17006KT 13/13 A298 RMK A01 T01290129  RH  100%=      5-min Rain = 0
KCL2 161127Z 16006KT 13/13 A298 RMK A01 T01290129  RH  100%=      5-min Rain = 0
KCL2 161128Z 15006KT 13/13 A298 RMK A01 T01290129  RH  100%=      5-min Rain = 0
KCL2 161129Z 16007KT 13/13 A298 RMK A01 T01290129  RH  100%=      5-min Rain = 0
KCL2 161130Z 17004KT 13/13 A298 RMK A01 T01290129  RH  100%=      5-min Rain = 0
KCL2 161131Z 15005KT 13/13 A298 RMK A01 T01290129  RH  100%=      5-min Rain = 0
KCL2 161132Z 16004KT 13/13 A298 RMK A01 T01290129  RH  100%=      5-min Rain = 0
KCL2 161133Z 15005KT 13/13 A298 RMK A01 T01290129  RH  100%=      5-min Rain = 0
KCL2 161134Z 16006KT 13/13 A298 RMK A01 T01290129  RH  100%=      5-min Rain = 0
KCL2 161135Z 16007KT 13/13 A298 RMK A01 T01290129  RH  100%=      5-min Rain = 0
KCL2 161136Z 15007KT 13/13 A298 RMK A01 T01290129  RH  100%=      5-min Rain = 0
KCL2 161137Z 15007KT 13/13 A298 RMK A01 T01290129  RH  100%=      5-min Rain = 0
KCL2 161138Z 16006KT 13/13 A298 RMK A01 T01290129  RH  100%=      5-min Rain = 0
KCL2 161139Z 15006KT 13/13 A298 RMK A01 T01290129  RH  100%=      5-min Rain = 0
KCL2 161140Z 15008KT 13/13 A298 RMK A01 T01290129  RH  100%=      5-min Rain = 0
KCL2 161141Z 15008KT 13/13 A298 RMK A01 T01290129  RH  100%=      5-min Rain = 0
KCL2 161142Z 15007KT 13/13 A298 RMK A01 T01290129  RH  100%=      5-min Rain = 0
KCL2 161143Z 15007KT 13/13 A298 RMK A01 T01290129  RH  100%=      5-min Rain = 0
KCL2 161144Z 16008KT 13/13 A298 RMK A01 T01290129  RH  100%=      5-min Rain = 0
KCL2 161145Z 16007KT 13/13 A298 RMK A01 T01290129  RH  100%=      5-min Rain = 0
KCL2 161146Z 16006KT 13/13 A298 RMK A01 T01290129  RH  100%=      5-min Rain = 0
KCL2 161147Z 15005KT 13/13 A298 RMK A01 T01290129  RH  100%=      5-min Rain = 0
KCL2 161148Z 15007KT 13/13 A298 RMK A01 T01290129  RH  100%=      5-min Rain = 0
KCL2 161149Z 15007KT 13/13 A298 RMK A01 T01290129  RH  100%=      5-min Rain = 0
KCL2 161150Z 15006KT 13/13 A298 RMK A01 T01290129  RH  100%=      5-min Rain = 0
KCL2 161151Z 15006KT 13/13 A298 RMK A01 T01290129  RH  100%=      5-min Rain = 0
KCL2 161152Z 16006KT 13/13 A298 RMK A01 T01290129  RH  100%=      5-min Rain = 0
KCL2 161153Z 15006KT 13/13 A298 RMK A01 T01290129  RH  100%=      5-min Rain = 0
KCL2 161154Z 16004KT 13/13 A298 RMK A01 T01290129  RH  100%=      5-min Rain = 0
KCL2 161155Z 15006KT 13/13 A298 RMK A01 T01290129  RH  100%=      5-min Rain = 0
KCL2 161156Z 15004KT 13/13 A2981 RMK A01 T01290129  RH  100%=      5-min Rain = 0
KCL2 161157Z 16003KT 13/13 A2981 RMK A01 T01290129  RH  100%=      5-min Rain = 0
KCL2 161158Z 14002KT 13/13 A2981 RMK A01 T01290129  RH  100%=      5-min Rain = 0
KCL2 161159Z 15002KT 13/13 A2982 RMK A01 T01290129  RH  100%=      5-min Rain = 0
KCL2 161200Z 15000KT 13/13 A2982 RMK A01 T01290129  RH  100%=      5-min Rain = 0
KCL2 161201Z 00000KT 13/13 A2982 RMK A01 T01290129  RH  100%=      5-min Rain = 0
KCL2 161202Z 00000KT 13/13 A2982 RMK A01 T01290129  RH  100%=      5-min Rain = 0
KCL2 161203Z 33000KT 13/13 A2982 RMK A01 T01290129  RH  100%=      5-min Rain = 0
KCL2 161204Z 33000KT 13/13 A2982 RMK A01 T01290129  RH  100%=      5-min Rain = 0
KCL2 161205Z 34002KT 13/13 A2982 RMK A01 T01290129  RH  100%=      5-min Rain = 0
KCL2 161206Z 34002KT 13/13 A2982 RMK A01 T01300130  RH  100%=      5-min Rain = 0
KCL2 161207Z 34002KT 13/13 A2983 RMK A01 T01300130  RH  100%=      5-min Rain = 0
KCL2 161208Z 32003KT 13/13 A2983 RMK A01 T01300130  RH  100%=      5-min Rain = 0
KCL2 161209Z 33004KT 13/13 A2983 RMK A01 T01300130  RH  100%=      5-min Rain = 0
KCL2 161210Z 32005KT 13/13 A2983 RMK A01 T01300130  RH  100%=      5-min Rain = 0
KCL2 161211Z 32004KT 13/13 A2983 RMK A01 T01300130  RH  100%=      5-min Rain = 0
KCL2 161212Z 31005KT 13/13 A2983 RMK A01 T01300130  RH  100%=      5-min Rain = 0
KCL2 161213Z 32004KT 13/13 A2983 RMK A01 T01300130  RH  100%=      5-min Rain = 0
KCL2 161214Z 33003KT 13/13 A2983 RMK A01 T01300130  RH  100%=      5-min Rain = 0
KCL2 161215Z 33002KT 13/13 A2983 RMK A01 T01300130  RH  100%=      5-min Rain = 0
KCL2 161216Z 33002KT 13/13 A2983 RMK A01 T01300130  RH  100%=      5-min Rain = 0
KCL2 161217Z 32001KT 13/13 A2983 RMK A01 T01300130  RH  100%=      5-min Rain = 0
KCL2 161218Z 32001KT 13/13 A2983 RMK A01 T01300130  RH  100%=      5-min Rain = 0
KCL2 161219Z 33002KT 13/13 A2983 RMK A01 T01300130  RH  100%=      5-min Rain = 0
KCL2 161220Z 36001KT 13/13 A2982 RMK A01 T01300130  RH  100%=      5-min Rain = 0
KCL2 161221Z 00000KT 13/13 A2982 RMK A01 T01300130  RH  100%=      5-min Rain = 0
KCL2 161222Z 00000KT 13/13 A2982 RMK A01 T01300130  RH  100%=      5-min Rain = 0
KCL2 161223Z 00000KT 13/13 A2982 RMK A01 T01300130  RH  100%=      5-min Rain = 0
KCL2 161224Z 26001KT 13/13 A2982 RMK A01 T01300130  RH  100%=      5-min Rain = 0
KCL2 161225Z 26000KT 13/13 A2982 RMK A01 T01300130  RH  100%=      5-min Rain = 0.01
KCL2 161226Z 00000KT 13/13 A2982 RMK A01 T01300130  RH  100%=      5-min Rain = 0
KCL2 161227Z 00000KT 13/13 A2982 RMK A01 T01300130  RH  100%=      5-min Rain = 0
KCL2 161228Z 22000KT 13/13 A2982 RMK A01 T01300130  RH  100%=      5-min Rain = 0
KCL2 161229Z 23001KT 13/13 A2982 RMK A01 T01300130  RH  100%=      5-min Rain = 0
KCL2 161230Z 25002KT 13/13 A2982 RMK A01 T01300130  RH  100%=      5-min Rain = 0
KCL2 161231Z 26002KT 13/13 A2983 RMK A01 T01300130  RH  100%=      5-min Rain = 0
KCL2 161232Z 27002KT 13/13 A2983 RMK A01 T01300130  RH  100%=      5-min Rain = 0
KCL2 161233Z 27002KT 13/13 A2983 RMK A01 T01300130  RH  100%=      5-min Rain = 0
KCL2 161234Z 28002KT 13/13 A2983 RMK A01 T01300130  RH  100%=      5-min Rain = 0
KCL2 161235Z 29002KT 13/13 A2983 RMK A01 T01300131  RH  100%=      5-min Rain = 0
KCL2 161236Z 30003KT 13/13 A2983 RMK A01 T01310131  RH  100%=      5-min Rain = 0
KCL2 161237Z 31003KT 13/13 A2984 RMK A01 T01310131  RH  100%=      5-min Rain = 0
KCL2 161238Z 32004KT 13/13 A2984 RMK A01 T01310131  RH  100%=      5-min Rain = 0
KCL2 161239Z 32005KT 13/13 A2984 RMK A01 T01310131  RH  100%=      5-min Rain = 0
KCL2 161240Z 33005KT 13/13 A2984 RMK A01 T01310131  RH  100%=      5-min Rain = 0
KCL2 161241Z 33005KT 13/13 A2984 RMK A01 T01310131  RH  100%=      5-min Rain = 0
KCL2 161242Z 33005KT 13/13 A2984 RMK A01 T01310131  RH  100%=      5-min Rain = 0
KCL2 161243Z 33005KT 13/13 A2984 RMK A01 T01310131  RH  100%=      5-min Rain = 0
KCL2 161244Z 32005KT 13/13 A2984 RMK A01 T01310131  RH  100%=      5-min Rain = 0
KCL2 161245Z 32005KT 13/13 A2984 RMK A01 T01310131  RH  100%=      5-min Rain = 0
KCL2 161246Z 32005KT 13/13 A2985 RMK A01 T01310131  RH  100%=      5-min Rain = 0.01
KCL2 161247Z 32006KT 13/13 A2985 RMK A01 T01310131  RH  100%=      5-min Rain = 0
KCL2 161248Z 32005KT 13/13 A2985 RMK A01 T01310131  RH  100%=      5-min Rain = 0
KCL2 161249Z 32006KT 13/13 A2985 RMK A01 T01310131  RH  100%=      5-min Rain = 0
KCL2 161250Z 33005KT 13/13 A2985 RMK A01 T01310131  RH  100%=      5-min Rain = 0
KCL2 161251Z 33005KT 13/13 A2985 RMK A01 T01310131  RH  100%=      5-min Rain = 0
KCL2 161252Z 34005KT 13/13 A2985 RMK A01 T01310131  RH  100%=      5-min Rain = 0
KCL2 161253Z 33006KT 13/13 A2985 RMK A01 T01310131  RH  100%=      5-min Rain = 0
KCL2 161254Z 33006KT 13/13 A2985 RMK A01 T01310131  RH  100%=      5-min Rain = 0
KCL2 161255Z 33005KT 13/13 A2985 RMK A01 T01310131  RH  100%=      5-min Rain = 0
KCL2 161256Z 33006KT 13/13 A2985 RMK A01 T01310131  RH  100%=      5-min Rain = 0
KCL2 161257Z 34006KT 13/13 A2985 RMK A01 T01310131  RH  100%=      5-min Rain = 0
KCL2 161258Z 34006KT 13/13 A2985 RMK A01 T01310131  RH  100%=      5-min Rain = 0
KCL2 161259Z 34005KT 13/13 A2985 RMK A01 T01310131  RH  100%=      5-min Rain = 0.01
KCL2 161300Z 34005KT 13/13 A2985 RMK A01 T01310131  RH  100%=      5-min Rain = 0
KCL2 161301Z 33006KT 13/13 A2985 RMK A01 T01310131  RH  100%=      5-min Rain = 0
KCL2 161302Z 33009KT 13/13 A2985 RMK A01 T01310131  RH  100%=      5-min Rain = 0
KCL2 161303Z 33008KT 13/13 A2985 RMK A01 T01290129  RH  100%=      5-min Rain = 0
KCL2 161304Z 34007KT 13/13 A2985 RMK A01 T01280128  RH  100%=      5-min Rain = 0
KCL2 161305Z 34007KT 13/13 A2985 RMK A01 T01270127  RH  100%=      5-min Rain = 0
KCL2 161306Z 35007KT 13/13 A2985 RMK A01 T01270127  RH  100%=      5-min Rain = 0
KCL2 161307Z 35008KT 13/13 A2985 RMK A01 T01260126  RH  100%=      5-min Rain = 0
KCL2 161308Z 35007KT 13/13 A2985 RMK A01 T01250125  RH  100%=      5-min Rain = 0
KCL2 161309Z 35006KT 13/13 A2985 RMK A01 T01250125  RH  100%=      5-min Rain = 0
KCL2 161310Z 35007KT 13/13 A2985 RMK A01 T01250125  RH  100%=      5-min Rain = 0
KCL2 161311Z 36008KT 13/13 A2985 RMK A01 T01250125  RH  100%=      5-min Rain = 0
KCL2 161312Z 00008KT 13/13 A2985 RMK A01 T01250125  RH  100%=      5-min Rain = 0
KCL2 161313Z 35008KT 12/12 A2985 RMK A01 T01240124  RH  100%=      5-min Rain = 0
KCL2 161314Z 36009KT 12/12 A2985 RMK A01 T01240124  RH  100%=      5-min Rain = 0
KCL2 161315Z 35010KT 12/12 A2985 RMK A01 T01240124  RH  100%=      5-min Rain = 0
KCL2 161316Z 36008KT 12/12 A2985 RMK A01 T01240124  RH  100%=      5-min Rain = 0
KCL2 161317Z 36007KT 12/12 A2985 RMK A01 T01230123  RH  100%=      5-min Rain = 0
KCL2 161318Z 00007KT 12/12 A2985 RMK A01 T01230123  RH  100%=      5-min Rain = 0
KCL2 161319Z 00006KT 12/12 A2985 RMK A01 T01230123  RH  100%=      5-min Rain = 0
KCL2 161320Z 00007KT 12/12 A2985 RMK A01 T01240124  RH  100%=      5-min Rain = 0
KCL2 161321Z 36006KT 12/12 A2985 RMK A01 T01240124  RH  100%=      5-min Rain = 0
KCL2 161322Z 36006KT 12/12 A2985 RMK A01 T01240124  RH  100%=      5-min Rain = 0
KCL2 161323Z 36009KT 12/12 A2985 RMK A01 T01240124  RH  100%=      5-min Rain = 0
KCL2 161324Z 35008KT 12/12 A2985 RMK A01 T01240124  RH  100%=      5-min Rain = 0
KCL2 161325Z 35008KT 12/12 A2985 RMK A01 T01230123  RH  100%=      5-min Rain = 0
KCL2 161326Z 35008KT 12/12 A2985 RMK A01 T01230123  RH  100%=      5-min Rain = 0
KCL2 161327Z 35008KT 12/12 A2985 RMK A01 T01230123  RH  100%=      5-min Rain = 0
KCL2 161328Z 35008KT 12/12 A2985 RMK A01 T01230124  RH  100%=      5-min Rain = 0
KCL2 161329Z 34007KT 12/12 A2985 RMK A01 T01230123  RH  100%=      5-min Rain = 0
KCL2 161330Z 35009KT 12/12 A2985 RMK A01 T01230123  RH  100%=      5-min Rain = 0.01
KCL2 161331Z 35008KT 12/12 A2986 RMK A01 T01230123  RH  100%=      5-min Rain = 0
KCL2 161332Z 35008KT 12/12 A2986 RMK A01 T01230123  RH  100%=      5-min Rain = 0
KCL2 161333Z 35008KT 12/12 A2986 RMK A01 T01230123  RH  100%=      5-min Rain = 0
KCL2 161334Z 34007KT 12/12 A2986 RMK A01 T01220122  RH  100%=      5-min Rain = 0
KCL2 161335Z 34008KT 12/12 A2986 RMK A01 T01220123  RH  100%=      5-min Rain = 0
KCL2 161336Z 35008KT 12/12 A2986 RMK A01 T01220122  RH  100%=      5-min Rain = 0
KCL2 161337Z 35007KT 12/12 A2986 RMK A01 T01220122  RH  100%=      5-min Rain = 0
KCL2 161338Z 34009KT 12/12 A2986 RMK A01 T01220122  RH  100%=      5-min Rain = 0
KCL2 161339Z 34008KT 12/12 A2986 RMK A01 T01210121  RH  100%=      5-min Rain = 0
KCL2 161340Z 34009KT 12/12 A2986 RMK A01 T01210122  RH  100%=      5-min Rain = 0
KCL2 161341Z 34009KT 12/12 A2986 RMK A01 T01210121  RH  100%=      5-min Rain = 0
KCL2 161342Z 35008KT 12/12 A2986 RMK A01 T01210121  RH  100%=      5-min Rain = 0
KCL2 161343Z 34008KT 12/12 A2986 RMK A01 T01210121  RH  100%=      5-min Rain = 0
KCL2 161344Z 35007KT 12/12 A2986 RMK A01 T01210121  RH  100%=      5-min Rain = 0
KCL2 161345Z 35008KT 12/12 A2986 RMK A01 T01210121  RH  100%=      5-min Rain = 0
KCL2 161346Z 00009KT 12/12 A2986 RMK A01 T01210121  RH  100%=      5-min Rain = 0
KCL2 161347Z 36008KT 12/12 A2986 RMK A01 T01210121  RH  100%=      5-min Rain = 0
KCL2 161348Z 36007KT 12/12 A2986 RMK A01 T01210121  RH  100%=      5-min Rain = 0
KCL2 161349Z 36007KT 12/12 A2986 RMK A01 T01210121  RH  100%=      5-min Rain = 0
KCL2 161350Z 35008KT 12/12 A2986 RMK A01 T01220122  RH  100%=      5-min Rain = 0
KCL2 161351Z 35008KT 12/12 A2986 RMK A01 T01210121  RH  100%=      5-min Rain = 0
KCL2 161352Z 35009KT 12/12 A2986 RMK A01 T01220122  RH  100%=      5-min Rain = 0
KCL2 161353Z 35009KT 12/12 A2986 RMK A01 T01220122  RH  100%=      5-min Rain = 0
KCL2 161354Z 35010KT 12/12 A2986 RMK A01 T01210121  RH  100%=      5-min Rain = 0
KCL2 161355Z 34010KT 12/12 A2986 RMK A01 T01210121  RH  100%=      5-min Rain = 0
KCL2 161356Z 36009KT 12/12 A2987 RMK A01 T01210121  RH  100%=      5-min Rain = 0
KCL2 161357Z 36010KT 12/12 A2987 RMK A01 T01210121  RH  100%=      5-min Rain = 0
KCL2 161358Z 35008KT 12/12 A2987 RMK A01 T01210121  RH  100%=      5-min Rain = 0
KCL2 161359Z 35009KT 12/12 A2987 RMK A01 T01210121  RH  100%=      5-min Rain = 0
KCL2 161400Z 35009KT 12/12 A2987 RMK A01 T01200120  RH  100%=      5-min Rain = 0
KCL2 161401Z 35009KT 12/12 A2987 RMK A01 T01210121  RH  100%=      5-min Rain = 0
KCL2 161402Z 35008KT 12/12 A2987 RMK A01 T01210121  RH  100%=      5-min Rain = 0
KCL2 161403Z 36009KT 12/12 A2987 RMK A01 T01210121  RH  100%=      5-min Rain = 0
KCL2 161404Z 36007KT 12/12 A2987 RMK A01 T01210121  RH  100%=      5-min Rain = 0
KCL2 161405Z 01009KT 12/12 A2987 RMK A01 T01210121  RH  100%=      5-min Rain = 0
KCL2 161406Z 00009KT 12/12 A2987 RMK A01 T01210121  RH  100%=      5-min Rain = 0
KCL2 161407Z 00008KT 12/12 A2987 RMK A01 T01210121  RH  100%=      5-min Rain = 0
KCL2 161408Z 36009KT 12/12 A2987 RMK A01 T01210122  RH  100%=      5-min Rain = 0
KCL2 161409Z 36009KT 12/12 A2987 RMK A01 T01210121  RH  100%=      5-min Rain = 0
KCL2 161410Z 35008KT 12/12 A2987 RMK A01 T01220122  RH  100%=      5-min Rain = 0
KCL2 161411Z 35009KT 12/12 A2987 RMK A01 T01220122  RH  100%=      5-min Rain = 0
KCL2 161412Z 35010KT 12/12 A2987 RMK A01 T01220122  RH  100%=      5-min Rain = 0
KCL2 161413Z 00009KT 12/12 A2987 RMK A01 T01210122  RH  100%=      5-min Rain = 0
KCL2 161414Z 00009KT 12/12 A2987 RMK A01 T01220122  RH  100%=      5-min Rain = 0
KCL2 161415Z 00009KT 12/12 A2987 RMK A01 T01220122  RH  100%=      5-min Rain = 0
KCL2 161416Z 01008KT 12/12 A2987 RMK A01 T01220122  RH  100%=      5-min Rain = 0
KCL2 161417Z 36008KT 12/12 A2987 RMK A01 T01220122  RH  100%=      5-min Rain = 0
KCL2 161418Z 36008KT 12/12 A2987 RMK A01 T01220122  RH  100%=      5-min Rain = 0
KCL2 161419Z 00008KT 12/12 A2987 RMK A01 T01220122  RH  100%=      5-min Rain = 0
KCL2 161420Z 00007KT 12/12 A2987 RMK A01 T01210122  RH  100%=      5-min Rain = 0
KCL2 161421Z 36009KT 12/12 A2987 RMK A01 T01220122  RH  100%=      5-min Rain = 0
KCL2 161422Z 35008KT 12/12 A2987 RMK A01 T01220122  RH  100%=      5-min Rain = 0
KCL2 161423Z 00008KT 12/12 A2987 RMK A01 T01220122  RH  100%=      5-min Rain = 0
KCL2 161424Z 01007KT 12/12 A2987 RMK A01 T01220122  RH  100%=      5-min Rain = 0
KCL2 161425Z 01008KT 12/12 A2987 RMK A01 T01230123  RH  100%=      5-min Rain = 0
KCL2 161426Z 00007KT 12/12 A2987 RMK A01 T01230123  RH  100%=      5-min Rain = 0
KCL2 161427Z 01006KT 12/12 A2987 RMK A01 T01230123  RH  100%=      5-min Rain = 0
KCL2 161428Z 36008KT 12/12 A2987 RMK A01 T01240124  RH  100%=      5-min Rain = 0
KCL2 161429Z 00007KT 12/12 A2987 RMK A01 T01240124  RH  100%=      5-min Rain = 0
KCL2 161430Z 00008KT 12/12 A2987 RMK A01 T01240124  RH  100%=      5-min Rain = 0
KCL2 161431Z 01009KT 13/13 A2986 RMK A01 T01250125  RH  100%=      5-min Rain = 0
KCL2 161432Z 00008KT 12/12 A2986 RMK A01 T01240124  RH  100%=      5-min Rain = 0
KCL2 161433Z 01008KT 13/13 A2987 RMK A01 T01250125  RH  100%=      5-min Rain = 0
KCL2 161434Z 00007KT 13/13 A2987 RMK A01 T01250125  RH  100%=      5-min Rain = 0
KCL2 161435Z 00009KT 13/13 A2987 RMK A01 T01250125  RH  100%=      5-min Rain = 0
KCL2 161436Z 01009KT 12/13 A2987 RMK A01 T01240125  RH  100%=      5-min Rain = 0
KCL2 161437Z 36009KT 13/13 A2987 RMK A01 T01250125  RH  100%=      5-min Rain = 0
KCL2 161438Z 01008KT 13/13 A2987 RMK A01 T01250125  RH  100%=      5-min Rain = 0
KCL2 161439Z 01008KT 13/13 A2987 RMK A01 T01250125  RH  100%=      5-min Rain = 0
KCL2 161440Z 00009KT 13/13 A2987 RMK A01 T01250125  RH  100%=      5-min Rain = 0
KCL2 161441Z 01009KT 13/13 A2987 RMK A01 T01250125  RH  100%=      5-min Rain = 0
KCL2 161442Z 01009KT 13/13 A2987 RMK A01 T01250125  RH  100%=      5-min Rain = 0
KCL2 161443Z 01009KT 13/13 A2987 RMK A01 T01250125  RH  100%=      5-min Rain = 0
KCL2 161444Z 36007KT 13/13 A2987 RMK A01 T01250125  RH  100%=      5-min Rain = 0
KCL2 161445Z 35006KT 13/13 A2987 RMK A01 T01260126  RH  100%=      5-min Rain = 0
KCL2 161446Z 35007KT 13/13 A2987 RMK A01 T01270127  RH  100%=      5-min Rain = 0
KCL2 161447Z 36006KT 13/13 A2987 RMK A01 T01270127  RH  100%=      5-min Rain = 0
KCL2 161448Z 35007KT 13/13 A2987 RMK A01 T01280128  RH  100%=      5-min Rain = 0
KCL2 161449Z 36008KT 13/13 A2987 RMK A01 T01270127  RH  100%=      5-min Rain = 0
KCL2 161450Z 36009KT 13/13 A2987 RMK A01 T01260126  RH  100%=      5-min Rain = 0
KCL2 161451Z 35008KT 13/13 A2987 RMK A01 T01260126  RH  100%=      5-min Rain = 0
KCL2 161452Z 36009KT 13/13 A2987 RMK A01 T01250125  RH  100%=      5-min Rain = 0
KCL2 161453Z 36008KT 13/13 A2987 RMK A01 T01250125  RH  100%=      5-min Rain = 0
KCL2 161454Z 36009KT 12/12 A2987 RMK A01 T01240124  RH  100%=      5-min Rain = 0
KCL2 161455Z 00009KT 12/12 A2987 RMK A01 T01240124  RH  100%=      5-min Rain = 0
KCL2 161456Z 01007KT 12/12 A2987 RMK A01 T01240124  RH  100%=      5-min Rain = 0
KCL2 161457Z 00007KT 12/12 A2987 RMK A01 T01240124  RH  100%=      5-min Rain = 0
KCL2 161458Z 01006KT 12/12 A2987 RMK A01 T01240124  RH  100%=      5-min Rain = 0
KCL2 161459Z 36005KT 13/13 A2987 RMK A01 T01250125  RH  100%=      5-min Rain = 0
KCL2 161500Z 01006KT 13/13 A2987 RMK A01 T01250126  RH  100%=      5-min Rain = 0
KCL2 161501Z 00007KT 13/13 A2987 RMK A01 T01260126  RH  100%=      5-min Rain = 0
KCL2 161502Z 00008KT 13/13 A2987 RMK A01 T01250126  RH  100%=      5-min Rain = 0
KCL2 161503Z 36007KT 12/12 A2987 RMK A01 T01240124  RH  100%=      5-min Rain = 0
KCL2 161504Z 35008KT 13/13 A2987 RMK A01 T01250125  RH  100%=      5-min Rain = 0
KCL2 161505Z 35009KT 13/13 A2987 RMK A01 T01250125  RH  100%=      5-min Rain = 0
KCL2 161506Z 35008KT 12/12 A2987 RMK A01 T01240124  RH  100%=      5-min Rain = 0
KCL2 161507Z 36008KT 12/12 A2987 RMK A01 T01240124  RH  100%=      5-min Rain = 0
KCL2 161508Z 36007KT 12/12 A2987 RMK A01 T01240124  RH  100%=      5-min Rain = 0
KCL2 161509Z 00006KT 12/13 A2987 RMK A01 T01240125  RH  100%=      5-min Rain = 0
KCL2 161510Z 36006KT 13/13 A2987 RMK A01 T01260126  RH  100%=      5-min Rain = 0
KCL2 161511Z 35008KT 13/13 A2987 RMK A01 T01260126  RH  100%=      5-min Rain = 0
KCL2 161512Z 35008KT 13/13 A2987 RMK A01 T01250125  RH  100%=      5-min Rain = 0
KCL2 161513Z 35008KT 13/13 A2987 RMK A01 T01250125  RH  100%=      5-min Rain = 0
KCL2 161514Z 34008KT 13/13 A2987 RMK A01 T01250125  RH  100%=      5-min Rain = 0
KCL2 161515Z 34007KT 13/13 A2987 RMK A01 T01250125  RH  100%=      5-min Rain = 0
KCL2 161516Z 34008KT 13/13 A2987 RMK A01 T01260126  RH  100%=      5-min Rain = 0
KCL2 161517Z 35008KT 13/13 A2987 RMK A01 T01250125  RH  100%=      5-min Rain = 0
KCL2 161518Z 35008KT 12/12 A2987 RMK A01 T01240124  RH  100%=      5-min Rain = 0
KCL2 161519Z 35007KT 12/12 A2988 RMK A01 T01240124  RH  100%=      5-min Rain = 0
KCL2 161520Z 34007KT 13/13 A2988 RMK A01 T01250125  RH  100%=      5-min Rain = 0
KCL2 161521Z 35006KT 12/13 A2988 RMK A01 T01240125  RH  100%=      5-min Rain = 0
KCL2 161522Z 34006KT 13/13 A2988 RMK A01 T01250125  RH  100%=      5-min Rain = 0
KCL2 161523Z 35007KT 13/13 A2988 RMK A01 T01250125  RH  100%=      5-min Rain = 0
KCL2 161524Z 35007KT 13/13 A2987 RMK A01 T01250125  RH  100%=      5-min Rain = 0
KCL2 161525Z 35008KT 13/13 A2987 RMK A01 T01250125  RH  100%=      5-min Rain = 0
KCL2 161526Z 35007KT 13/13 A2987 RMK A01 T01250125  RH  100%=      5-min Rain = 0
KCL2 161527Z 36007KT 13/13 A2987 RMK A01 T01250125  RH  100%=      5-min Rain = 0
KCL2 161528Z 35006KT 13/13 A2987 RMK A01 T01250125  RH  100%=      5-min Rain = 0
KCL2 161529Z 35006KT 13/13 A2987 RMK A01 T01250126  RH  100%=      5-min Rain = 0
KCL2 161530Z 34007KT 13/13 A2987 RMK A01 T01260126  RH  100%=      5-min Rain = 0
KCL2 161531Z 35008KT 13/13 A2987 RMK A01 T01250126  RH  100%=      5-min Rain = 0
KCL2 161532Z 36008KT 13/13 A2987 RMK A01 T01250125  RH  100%=      5-min Rain = 0
KCL2 161533Z 35008KT 13/13 A2988 RMK A01 T01250125  RH  100%=      5-min Rain = 0
KCL2 161534Z 35008KT 13/13 A2988 RMK A01 T01250125  RH  100%=      5-min Rain = 0
KCL2 161535Z 34008KT 12/12 A2988 RMK A01 T01240124  RH  100%=      5-min Rain = 0
KCL2 161536Z 35009KT 12/12 A2988 RMK A01 T01240124  RH  100%=      5-min Rain = 0
KCL2 161537Z 35009KT 12/12 A2988 RMK A01 T01230123  RH  100%=      5-min Rain = 0
KCL2 161538Z 35008KT 12/12 A2988 RMK A01 T01220122  RH  100%=      5-min Rain = 0
KCL2 161539Z 34009KT 12/12 A2988 RMK A01 T01220122  RH  100%=      5-min Rain = 0
KCL2 161540Z 34009KT 12/12 A2988 RMK A01 T01230123  RH  100%=      5-min Rain = 0
KCL2 161541Z 34008KT 12/12 A2988 RMK A01 T01230123  RH  100%=      5-min Rain = 0
KCL2 161542Z 35007KT 12/12 A2988 RMK A01 T01240124  RH  100%=      5-min Rain = 0
KCL2 161543Z 00007KT 13/13 A2988 RMK A01 T01250125  RH  100%=      5-min Rain = 0
KCL2 161544Z 01008KT 13/13 A2988 RMK A01 T01250125  RH  100%=      5-min Rain = 0
KCL2 161545Z 00008KT 12/12 A2988 RMK A01 T01240124  RH  100%=      5-min Rain = 0
KCL2 161546Z 36009KT 12/12 A2988 RMK A01 T01240124  RH  100%=      5-min Rain = 0
KCL2 161547Z 36007KT 12/12 A2988 RMK A01 T01230123  RH  100%=      5-min Rain = 0
KCL2 161548Z 36007KT 12/12 A2988 RMK A01 T01240124  RH  100%=      5-min Rain = 0
KCL2 161549Z 00007KT 13/13 A2988 RMK A01 T01250125  RH  100%=      5-min Rain = 0
KCL2 161550Z 35008KT 13/13 A2988 RMK A01 T01250125  RH  100%=      5-min Rain = 0
KCL2 161551Z 35008KT 13/13 A2988 RMK A01 T01250125  RH  100%=      5-min Rain = 0
KCL2 161552Z 36009KT 12/12 A2988 RMK A01 T01240124  RH  100%=      5-min Rain = 0
KCL2 161553Z 00009KT 12/12 A2988 RMK A01 T01240124  RH  100%=      5-min Rain = 0
KCL2 161554Z 00007KT 12/12 A2988 RMK A01 T01240124  RH  100%=      5-min Rain = 0
KCL2 161555Z 00009KT 12/12 A2988 RMK A01 T01240124  RH  100%=      5-min Rain = 0
KCL2 161556Z 36008KT 12/12 A2988 RMK A01 T01240124  RH  100%=      5-min Rain = 0
KCL2 161557Z 35007KT 12/12 A2989 RMK A01 T01240124  RH  100%=      5-min Rain = 0
KCL2 161558Z 34006KT 12/12 A2989 RMK A01 T01240124  RH  100%=      5-min Rain = 0
KCL2 161559Z 34007KT 12/12 A2989 RMK A01 T01240124  RH  100%=      5-min Rain = 0
KCL2 161600Z 33007KT 12/12 A2989 RMK A01 T01240124  RH  100%=      5-min Rain = 0
KCL2 161601Z 35007KT 12/12 A2989 RMK A01 T01240124  RH  100%=      5-min Rain = 0
KCL2 161602Z 36008KT 13/13 A2989 RMK A01 T01250125  RH  100%=      5-min Rain = 0
KCL2 161603Z 35008KT 13/13 A2989 RMK A01 T01250125  RH  100%=      5-min Rain = 0
KCL2 161604Z 35008KT 12/12 A2989 RMK A01 T01240124  RH  100%=      5-min Rain = 0
KCL2 161605Z 35009KT 12/12 A2989 RMK A01 T01240124  RH  100%=      5-min Rain = 0
KCL2 161606Z 34008KT 12/12 A2989 RMK A01 T01240124  RH  100%=      5-min Rain = 0
KCL2 161607Z 35009KT 12/12 A2989 RMK A01 T01230123  RH  100%=      5-min Rain = 0
KCL2 161608Z 35009KT 12/12 A2989 RMK A01 T01230124  RH  100%=      5-min Rain = 0
KCL2 161609Z 34010KT 12/12 A2989 RMK A01 T01230123  RH  100%=      5-min Rain = 0
KCL2 161610Z 35009KT 12/12 A2989 RMK A01 T01230123  RH  100%=      5-min Rain = 0
KCL2 161611Z 36009KT 12/12 A2989 RMK A01 T01230123  RH  100%=      5-min Rain = 0
KCL2 161612Z 36009KT 12/12 A2989 RMK A01 T01230123  RH  100%=      5-min Rain = 0
KCL2 161613Z 35009KT 12/12 A2989 RMK A01 T01220122  RH  100%=      5-min Rain = 0
KCL2 161614Z 35009KT 12/12 A2989 RMK A01 T01220122  RH  100%=      5-min Rain = 0
KCL2 161615Z 35011KT 12/12 A2989 RMK A01 T01220122  RH  100%=      5-min Rain = 0
KCL2 161616Z 35009KT 12/12 A2989 RMK A01 T01210121  RH  100%=      5-min Rain = 0
KCL2 161617Z 35008KT 12/12 A2989 RMK A01 T01200121  RH  100%=      5-min Rain = 0
KCL2 161618Z 34007KT 12/12 A2989 RMK A01 T01210121  RH  100%=      5-min Rain = 0
KCL2 161619Z 33006KT 12/12 A2989 RMK A01 T01210121  RH  100%=      5-min Rain = 0
KCL2 161620Z 34007KT 12/12 A2989 RMK A01 T01220122  RH  100%=      5-min Rain = 0
KCL2 161621Z 33008KT 12/12 A2989 RMK A01 T01230123  RH  100%=      5-min Rain = 0
KCL2 161622Z 33008KT 12/12 A2989 RMK A01 T01220122  RH  100%=      5-min Rain = 0
KCL2 161623Z 33006KT 12/12 A2989 RMK A01 T01210121  RH  100%=      5-min Rain = 0
KCL2 161624Z 33005KT 12/12 A2989 RMK A01 T01220122  RH  100%=      5-min Rain = 0
KCL2 161625Z 33006KT 12/12 A2989 RMK A01 T01220122  RH  100%=      5-min Rain = 0
KCL2 161626Z 32008KT 12/12 A2989 RMK A01 T01220122  RH  100%=      5-min Rain = 0
KCL2 161627Z 32006KT 12/12 A2989 RMK A01 T01210121  RH  100%=      5-min Rain = 0
KCL2 161628Z 33007KT 12/12 A2989 RMK A01 T01220122  RH  100%=      5-min Rain = 0
KCL2 161629Z 33007KT 12/12 A2989 RMK A01 T01220122  RH  100%=      5-min Rain = 0
KCL2 161630Z 34008KT 12/12 A2989 RMK A01 T01210121  RH  100%=      5-min Rain = 0
KCL2 161631Z 34007KT 12/12 A2989 RMK A01 T01210121  RH  100%=      5-min Rain = 0
KCL2 161632Z 34007KT 12/12 A2989 RMK A01 T01200120  RH  100%=      5-min Rain = 0
KCL2 161633Z 34007KT 12/12 A2989 RMK A01 T01200120  RH  100%=      5-min Rain = 0
KCL2 161634Z 34008KT 12/12 A2989 RMK A01 T01210121  RH  100%=      5-min Rain = 0
KCL2 161635Z 34008KT 12/12 A2988 RMK A01 T01200120  RH  100%=      5-min Rain = 0
KCL2 161636Z 34009KT 12/12 A2988 RMK A01 T01200120  RH  100%=      5-min Rain = 0
KCL2 161637Z 34009KT 12/12 A2988 RMK A01 T01200120  RH  100%=      5-min Rain = 0
KCL2 161638Z 34008KT 12/12 A2989 RMK A01 T01200120  RH  100%=      5-min Rain = 0
KCL2 161639Z 33008KT 12/12 A2988 RMK A01 T01200120  RH  100%=      5-min Rain = 0
KCL2 161640Z 34007KT 12/12 A2988 RMK A01 T01200120  RH  100%=      5-min Rain = 0
KCL2 161641Z 34007KT 12/12 A2988 RMK A01 T01200121  RH  100%=      5-min Rain = 0
KCL2 161642Z 34008KT 12/12 A2988 RMK A01 T01200120  RH  100%=      5-min Rain = 0
KCL2 161643Z 33006KT 12/12 A2989 RMK A01 T01210121  RH  100%=      5-min Rain = 0
KCL2 161644Z 34008KT 12/12 A2989 RMK A01 T01210121  RH  100%=      5-min Rain = 0
KCL2 161645Z 34008KT 12/12 A2989 RMK A01 T01210121  RH  100%=      5-min Rain = 0
KCL2 161646Z 34007KT 12/12 A2989 RMK A01 T01200120  RH  100%=      5-min Rain = 0
KCL2 161647Z 34008KT 12/12 A2989 RMK A01 T01200120  RH  100%=      5-min Rain = 0
KCL2 161648Z 34008KT 12/12 A2989 RMK A01 T01220122  RH  100%=      5-min Rain = 0
KCL2 161649Z 34008KT 12/12 A2989 RMK A01 T01210121  RH  100%=      5-min Rain = 0
KCL2 161650Z 34007KT 12/12 A2989 RMK A01 T01200120  RH  100%=      5-min Rain = 0
KCL2 161651Z 34008KT 12/12 A2989 RMK A01 T01200120  RH  100%=      5-min Rain = 0
KCL2 161652Z 33009KT 12/12 A2989 RMK A01 T01200120  RH  100%=      5-min Rain = 0
KCL2 161653Z 33008KT 12/12 A2989 RMK A01 T01200120  RH  100%=      5-min Rain = 0
KCL2 161654Z 33007KT 12/12 A2989 RMK A01 T01190119  RH  100%=      5-min Rain = 0
KCL2 161655Z 34007KT 12/12 A2989 RMK A01 T01200120  RH  100%=      5-min Rain = 0
KCL2 161656Z 34009KT 12/12 A2989 RMK A01 T01210121  RH  100%=      5-min Rain = 0
KCL2 161657Z 34009KT 12/12 A2989 RMK A01 T01200120  RH  100%=      5-min Rain = 0
KCL2 161658Z 34008KT 12/12 A2989 RMK A01 T01200120  RH  100%=      5-min Rain = 0
KCL2 161659Z 34007KT 12/12 A2989 RMK A01 T01200120  RH  100%=      5-min Rain = 0
KCL2 161700Z 34008KT 12/12 A2989 RMK A01 T01200120  RH  100%=      5-min Rain = 0
KCL2 161701Z 33009KT 12/12 A2989 RMK A01 T01200120  RH  100%=      5-min Rain = 0
KCL2 161702Z 33009KT 12/12 A2989 RMK A01 T01200120  RH  100%=      5-min Rain = 0
KCL2 161703Z 34009KT 12/12 A2989 RMK A01 T01200120  RH  100%=      5-min Rain = 0
KCL2 161704Z 35008KT 12/12 A2989 RMK A01 T01200120  RH  100%=      5-min Rain = 0
KCL2 161705Z 34008KT 12/12 A2989 RMK A01 T01190120  RH  100%=      5-min Rain = 0
KCL2 161706Z 34009KT 12/12 A2989 RMK A01 T01200120  RH  100%=      5-min Rain = 0
KCL2 161707Z 34009KT 12/12 A2989 RMK A01 T01190120  RH  100%=      5-min Rain = 0
KCL2 161708Z 33009KT 12/12 A2989 RMK A01 T01190120  RH  100%=      5-min Rain = 0
KCL2 161709Z 33010KT 12/12 A2989 RMK A01 T01200120  RH  100%=      5-min Rain = 0
KCL2 161710Z 34009KT 12/12 A2989 RMK A01 T01200120  RH  100%=      5-min Rain = 0
KCL2 161711Z 33009KT 12/12 A2989 RMK A01 T01200120  RH  100%=      5-min Rain = 0
KCL2 161712Z 35008KT 12/12 A2989 RMK A01 T01200120  RH  100%=      5-min Rain = 0
KCL2 161713Z 34009KT 12/12 A2989 RMK A01 T01200120  RH  100%=      5-min Rain = 0
KCL2 161714Z 34008KT 12/12 A2989 RMK A01 T01200120  RH  100%=      5-min Rain = 0
KCL2 161715Z 33009KT 12/12 A2989 RMK A01 T01210121  RH  100%=      5-min Rain = 0
KCL2 161716Z 34010KT 12/12 A2989 RMK A01 T01220122  RH  100%=      5-min Rain = 0
KCL2 161717Z 33009KT 12/12 A2989 RMK A01 T01210121  RH  100%=      5-min Rain = 0
KCL2 161718Z 34010KT 12/12 A2989 RMK A01 T01210121  RH  100%=      5-min Rain = 0
KCL2 161719Z 34011KT 12/12 A2989 RMK A01 T01200120  RH  100%=      5-min Rain = 0
KCL2 161720Z 34011KT 12/12 A2989 RMK A01 T01190119  RH  100%=      5-min Rain = 0
KCL2 161721Z 34010KT 12/12 A2989 RMK A01 T01190119  RH  100%=      5-min Rain = 0
KCL2 161722Z 35011KT 12/12 A2989 RMK A01 T01190119  RH  100%=      5-min Rain = 0
KCL2 161723Z 35009KT 12/12 A2989 RMK A01 T01190119  RH  100%=      5-min Rain = 0
KCL2 161724Z 35008KT 12/12 A2989 RMK A01 T01200120  RH  100%=      5-min Rain = 0
KCL2 161725Z 35012KT 12/12 A2989 RMK A01 T01200120  RH  100%=      5-min Rain = 0
KCL2 161726Z 34010KT 12/12 A2989 RMK A01 T01200120  RH  100%=      5-min Rain = 0
KCL2 161727Z 34010KT 12/12 A2989 RMK A01 T01200120  RH  100%=      5-min Rain = 0
KCL2 161728Z 34012KT 12/12 A299 RMK A01 T01190120  RH  100%=      5-min Rain = 0
KCL2 161729Z 34012KT 12/12 A299 RMK A01 T01190119  RH  100%=      5-min Rain = 0
KCL2 161730Z 34010KT 12/12 A299 RMK A01 T01190119  RH  100%=      5-min Rain = 0
KCL2 161731Z 34012KT 12/12 A299 RMK A01 T01180118  RH  100%=      5-min Rain = 0
KCL2 161732Z 34010KT 12/12 A299 RMK A01 T01170117  RH  100%=      5-min Rain = 0
KCL2 161733Z 34011KT 12/12 A299 RMK A01 T01170117  RH  100%=      5-min Rain = 0
KCL2 161734Z 34011KT 12/12 A299 RMK A01 T01160116  RH  100%=      5-min Rain = 0
KCL2 161735Z 35010KT 12/12 A2989 RMK A01 T01160116  RH  100%=      5-min Rain = 0
KCL2 161736Z 35010KT 12/12 A2989 RMK A01 T01170117  RH  100%=      5-min Rain = 0
KCL2 161737Z 35010KT 12/12 A2989 RMK A01 T01180118  RH  100%=      5-min Rain = 0
KCL2 161738Z 35008KT 12/12 A2989 RMK A01 T01180118  RH  100%=      5-min Rain = 0
KCL2 161739Z 36011KT 12/12 A2989 RMK A01 T01180118  RH  100%=      5-min Rain = 0
KCL2 161740Z 36010KT 12/12 A2989 RMK A01 T01170118  RH  100%=      5-min Rain = 0
KCL2 161741Z 35010KT 12/12 A2989 RMK A01 T01170117  RH  100%=      5-min Rain = 0
KCL2 161742Z 35012KT 12/12 A2989 RMK A01 T01170117  RH  100%=      5-min Rain = 0
KCL2 161743Z 34012KT 12/12 A2989 RMK A01 T01150115  RH  100%=      5-min Rain = 0
KCL2 161744Z 34012KT 12/12 A2989 RMK A01 T01150115  RH  100%=      5-min Rain = 0
KCL2 161745Z 34010KT 12/12 A2989 RMK A01 T01150115  RH  100%=      5-min Rain = 0
KCL2 161746Z 34009KT 12/12 A2989 RMK A01 T01160116  RH  100%=      5-min Rain = 0
KCL2 161747Z 34012KT 12/12 A2989 RMK A01 T01160116  RH  100%=      5-min Rain = 0
KCL2 161748Z 34011KT 11/11 A2989 RMK A01 T01140114  RH  100%=      5-min Rain = 0
KCL2 161749Z 34012KT 11/11 A2989 RMK A01 T01140114  RH  100%=      5-min Rain = 0
KCL2 161750Z 34013KT 11/11 A2989 RMK A01 T01140114  RH  100%=      5-min Rain = 0
KCL2 161751Z 34014KT 11/11 A2989 RMK A01 T01130113  RH  100%=      5-min Rain = 0
KCL2 161752Z 35013KT 11/11 A2989 RMK A01 T01130113  RH  100%=      5-min Rain = 0
KCL2 161753Z 35012KT 11/11 A2989 RMK A01 T01130113  RH  100%=      5-min Rain = 0
KCL2 161754Z 35013KT 11/11 A2989 RMK A01 T01120112  RH  100%=      5-min Rain = 0
KCL2 161755Z 35013KT 11/11 A2989 RMK A01 T01120112  RH  100%=      5-min Rain = 0
KCL2 161756Z 34011KT 11/11 A2989 RMK A01 T01130113  RH  100%=      5-min Rain = 0
KCL2 161757Z 35010KT 11/11 A2989 RMK A01 T01140114  RH  100%=      5-min Rain = 0
KCL2 161758Z 35013KT 11/11 A2989 RMK A01 T01140114  RH  100%=      5-min Rain = 0
KCL2 161759Z 36013KT 11/11 A299 RMK A01 T01140114  RH  100%=      5-min Rain = 0
KCL2 161800Z 36013KT 11/11 A299 RMK A01 T01130113  RH  100%=      5-min Rain = 0
KCL2 161801Z 36013KT 11/11 A299 RMK A01 T01130113  RH  100%=      5-min Rain = 0
KCL2 161802Z 00013KT 11/11 A299 RMK A01 T01130113  RH  100%=      5-min Rain = 0
KCL2 161803Z 36014KT 11/11 A299 RMK A01 T01130113  RH  100%=      5-min Rain = 0
KCL2 161804Z 35013KT 11/11 A299 RMK A01 T01130113  RH  100%=      5-min Rain = 0
KCL2 161805Z 35013G18KT 11/11 A299 RMK A01 T01120112  RH  100%=      5-min Rain = 0
KCL2 161806Z 34014KT 11/11 A299 RMK A01 T01120112  RH  100%=      5-min Rain = 0
KCL2 161807Z 35015KT 11/11 A299 RMK A01 T01120112  RH  100%=      5-min Rain = 0
KCL2 161808Z 34014KT 11/11 A299 RMK A01 T01110111  RH  100%=      5-min Rain = 0
KCL2 161809Z 35014KT 11/11 A2989 RMK A01 T01100111  RH  100%=      5-min Rain = 0
KCL2 161810Z 34013KT 11/11 A2989 RMK A01 T01100110  RH  100%=      5-min Rain = 0
KCL2 161811Z 34013KT 11/11 A2989 RMK A01 T01100110  RH  100%=      5-min Rain = 0
KCL2 161812Z 34013KT 11/11 A2989 RMK A01 T01110111  RH  100%=      5-min Rain = 0
KCL2 161813Z 35010KT 11/11 A2989 RMK A01 T01110111  RH  100%=      5-min Rain = 0
KCL2 161814Z 35010KT 11/11 A2989 RMK A01 T01120112  RH  100%=      5-min Rain = 0
KCL2 161815Z 34012KT 11/11 A2989 RMK A01 T01120112  RH  100%=      5-min Rain = 0
KCL2 161816Z 34011KT 11/11 A2989 RMK A01 T01120112  RH  100%=      5-min Rain = 0
KCL2 161817Z 34013KT 11/11 A2989 RMK A01 T01120112  RH  100%=      5-min Rain = 0
KCL2 161818Z 35011KT 11/11 A2989 RMK A01 T01110111  RH  100%=      5-min Rain = 0
KCL2 161819Z 35010KT 11/11 A2989 RMK A01 T01120112  RH  100%=      5-min Rain = 0
KCL2 161820Z 00010KT 11/11 A2989 RMK A01 T01120112  RH  100%=      5-min Rain = 0
KCL2 161821Z 35009KT 11/11 A2989 RMK A01 T01130113  RH  100%=      5-min Rain = 0
KCL2 161822Z 34013KT 11/11 A2989 RMK A01 T01130113  RH  100%=      5-min Rain = 0
KCL2 161823Z 34012KT 11/11 A2989 RMK A01 T01120112  RH  100%=      5-min Rain = 0
KCL2 161824Z 34012KT 11/11 A2989 RMK A01 T01120113  RH  100%=      5-min Rain = 0
KCL2 161825Z 33012KT 11/11 A2989 RMK A01 T01110112  RH  100%=      5-min Rain = 0
KCL2 161826Z 33013KT 11/11 A2989 RMK A01 T01110111  RH  100%=      5-min Rain = 0
KCL2 161827Z 34014KT 11/11 A2989 RMK A01 T01110111  RH  100%=      5-min Rain = 0
KCL2 161828Z 35011KT 11/11 A2989 RMK A01 T01100110  RH  100%=      5-min Rain = 0
KCL2 161829Z 34012KT 11/11 A2989 RMK A01 T01110111  RH  100%=      5-min Rain = 0
KCL2 161830Z 34013KT 11/11 A2989 RMK A01 T01110111  RH  100%=      5-min Rain = 0
KCL2 161831Z 34013KT 11/11 A2989 RMK A01 T01110111  RH  100%=      5-min Rain = 0
KCL2 161832Z 34013KT 11/11 A2989 RMK A01 T01100110  RH  100%=      5-min Rain = 0
KCL2 161833Z 34013KT 11/11 A2989 RMK A01 T01110111  RH  100%=      5-min Rain = 0
KCL2 161834Z 33013KT 11/11 A2989 RMK A01 T01100110  RH  100%=      5-min Rain = 0
KCL2 161835Z 33013KT 11/11 A2989 RMK A01 T01100110  RH  100%=      5-min Rain = 0
KCL2 161836Z 33012KT 11/11 A2989 RMK A01 T01100110  RH  100%=      5-min Rain = 0
KCL2 161837Z 33014KT 11/11 A2989 RMK A01 T01100110  RH  100%=      5-min Rain = 0
KCL2 161838Z 34014KT 11/11 A2989 RMK A01 T01100110  RH  100%=      5-min Rain = 0
KCL2 161839Z 35013KT 11/11 A2989 RMK A01 T01100110  RH  100%=      5-min Rain = 0
KCL2 161840Z 34014KT 11/11 A2989 RMK A01 T01100110  RH  100%=      5-min Rain = 0
KCL2 161841Z 35012KT 11/11 A299 RMK A01 T01100110  RH  100%=      5-min Rain = 0
KCL2 161842Z 35012KT 11/11 A299 RMK A01 T01100111  RH  100%=      5-min Rain = 0
KCL2 161843Z 34011KT 11/11 A299 RMK A01 T01110111  RH  100%=      5-min Rain = 0
KCL2 161844Z 34010G15KT 11/11 A299 RMK A01 T01110111  RH  100%=      5-min Rain = 0
KCL2 161845Z 34013KT 11/11 A299 RMK A01 T01120112  RH  100%=      5-min Rain = 0
KCL2 161846Z 34015KT 11/11 A299 RMK A01 T01110111  RH  100%=      5-min Rain = 0
KCL2 161847Z 34012KT 11/11 A299 RMK A01 T01100110  RH  100%=      5-min Rain = 0
KCL2 161848Z 33012KT 11/11 A299 RMK A01 T01100110  RH  100%=      5-min Rain = 0
KCL2 161849Z 33012KT 11/11 A299 RMK A01 T01100110  RH  100%=      5-min Rain = 0
KCL2 161850Z 34014KT 11/11 A299 RMK A01 T01100110  RH  100%=      5-min Rain = 0
KCL2 161851Z 34015KT 11/11 A299 RMK A01 T01100110  RH  100%=      5-min Rain = 0
KCL2 161852Z 34015KT 11/11 A299 RMK A01 T01100110  RH  100%=      5-min Rain = 0
KCL2 161853Z 35012KT 11/11 A299 RMK A01 T01100110  RH  100%=      5-min Rain = 0
KCL2 161854Z 35013KT 11/11 A299 RMK A01 T01100110  RH  100%=      5-min Rain = 0
KCL2 161855Z 35014KT 11/11 A299 RMK A01 T01100110  RH  100%=      5-min Rain = 0
KCL2 161856Z 35014KT 11/11 A299 RMK A01 T01100110  RH  100%=      5-min Rain = 0
KCL2 161857Z 34014KT 11/11 A299 RMK A01 T01100110  RH  100%=      5-min Rain = 0
KCL2 161858Z 34014KT 11/11 A299 RMK A01 T01100110  RH  100%=      5-min Rain = 0
KCL2 161859Z 33013KT 11/11 A299 RMK A01 T01100110  RH  100%=      5-min Rain = 0
KCL2 161900Z 34013KT 11/11 A299 RMK A01 T01100110  RH  100%=      5-min Rain = 0
KCL2 161901Z 34013KT 11/11 A299 RMK A01 T01100110  RH  100%=      5-min Rain = 0
KCL2 161902Z 34015KT 11/11 A299 RMK A01 T01100110  RH  100%=      5-min Rain = 0
KCL2 161903Z 34015KT 11/11 A299 RMK A01 T01100110  RH  100%=      5-min Rain = 0
KCL2 161904Z 34014KT 11/11 A299 RMK A01 T01090109  RH  100%=      5-min Rain = 0
KCL2 161905Z 34016KT 11/11 A299 RMK A01 T01090109  RH  100%=      5-min Rain = 0
KCL2 161906Z 34017KT 11/11 A299 RMK A01 T01090109  RH  100%=      5-min Rain = 0
KCL2 161907Z 34017KT 11/11 A299 RMK A01 T01090109  RH  100%=      5-min Rain = 0
KCL2 161908Z 34016KT 11/11 A299 RMK A01 T01090109  RH  100%=      5-min Rain = 0
KCL2 161909Z 34013KT 11/11 A2991 RMK A01 T01090109  RH  100%=      5-min Rain = 0
KCL2 161910Z 34014KT 11/11 A2991 RMK A01 T01100110  RH  100%=      5-min Rain = 0
KCL2 161911Z 34017KT 11/11 A2991 RMK A01 T01100110  RH  100%=      5-min Rain = 0
KCL2 161912Z 34016KT 11/11 A2991 RMK A01 T01100110  RH  100%=      5-min Rain = 0
KCL2 161913Z 34017KT 11/11 A2991 RMK A01 T01100110  RH  100%=      5-min Rain = 0
KCL2 161914Z 34014KT 11/11 A2991 RMK A01 T01100109  RH  100%=      5-min Rain = 0
KCL2 161915Z 34013KT 11/11 A2991 RMK A01 T01100110  RH  100%=      5-min Rain = 0
KCL2 161916Z 35011G17KT 11/11 A2991 RMK A01 T01110110  RH  100%=      5-min Rain = 0
KCL2 161917Z 35014KT 11/11 A2991 RMK A01 T01110111  RH  100%=      5-min Rain = 0
KCL2 161918Z 35015G20KT 11/11 A2991 RMK A01 T01110111  RH  100%=      5-min Rain = 0
KCL2 161919Z 35013KT 11/11 A2991 RMK A01 T01110110  RH  099%=      5-min Rain = 0
KCL2 161920Z 34015KT 11/11 A2991 RMK A01 T01110110  RH  099%=      5-min Rain = 0
KCL2 161921Z 34016KT 11/11 A2991 RMK A01 T01110110  RH  099%=      5-min Rain = 0
KCL2 161922Z 34018KT 11/11 A2991 RMK A01 T01110109  RH  099%=      5-min Rain = 0
KCL2 161923Z 33016KT 11/11 A2991 RMK A01 T01100107  RH  098%=      5-min Rain = 0
KCL2 161924Z 34016KT 11/11 A2991 RMK A01 T01100108  RH  098%=      5-min Rain = 0
KCL2 161925Z 35014KT 11/11 A2991 RMK A01 T01110108  RH  098%=      5-min Rain = 0
KCL2 161926Z 34015KT 11/11 A2991 RMK A01 T01110108  RH  098%=      5-min Rain = 0
KCL2 161927Z 35013KT 11/11 A2991 RMK A01 T01110107  RH  097%=      5-min Rain = 0
KCL2 161928Z 35014KT 11/11 A2991 RMK A01 T01110108  RH  097%=      5-min Rain = 0
KCL2 161929Z 35011KT 11/11 A2991 RMK A01 T01110107  RH  097%=      5-min Rain = 0
KCL2 161930Z 33014G19KT 11/11 A2991 RMK A01 T01120108  RH  097%=      5-min Rain = 0
KCL2 161931Z 34016KT 11/11 A2991 RMK A01 T01120107  RH  097%=      5-min Rain = 0
KCL2 161932Z 34013KT 11/11 A2991 RMK A01 T01110106  RH  097%=      5-min Rain = 0
KCL2 161933Z 34014KT 11/11 A2991 RMK A01 T01110106  RH  097%=      5-min Rain = 0
KCL2 161934Z 34015KT 11/11 A2991 RMK A01 T01110106  RH  096%=      5-min Rain = 0
KCL2 161935Z 34015KT 11/11 A2991 RMK A01 T01110106  RH  097%=      5-min Rain = 0
KCL2 161936Z 34013KT 11/11 A2991 RMK A01 T01120106  RH  096%=      5-min Rain = 0
KCL2 161937Z 34014G19KT 11/11 A2991 RMK A01 T01120107  RH  096%=      5-min Rain = 0
KCL2 161938Z 34016KT 11/11 A2991 RMK A01 T01120106  RH  096%=      5-min Rain = 0
KCL2 161939Z 34014KT 11/11 A2991 RMK A01 T01110105  RH  096%=      5-min Rain = 0
KCL2 161940Z 34016KT 11/11 A2991 RMK A01 T01110105  RH  096%=      5-min Rain = 0
KCL2 161941Z 34015KT 11/11 A2991 RMK A01 T01110105  RH  096%=      5-min Rain = 0
KCL2 161942Z 34015KT 11/11 A2991 RMK A01 T01100105  RH  096%=      5-min Rain = 0
KCL2 161943Z 34014KT 11/11 A2991 RMK A01 T01110105  RH  096%=      5-min Rain = 0
KCL2 161944Z 34015KT 11/10 A2991 RMK A01 T01100104  RH  096%=      5-min Rain = 0
KCL2 161945Z 34011KT 11/10 A2992 RMK A01 T01100104  RH  096%=      5-min Rain = 0
KCL2 161946Z 36013KT 11/10 A2992 RMK A01 T01100104  RH  096%=      5-min Rain = 0
KCL2 161947Z 36012KT 11/11 A2992 RMK A01 T01110105  RH  096%=      5-min Rain = 0
KCL2 161948Z 36015KT 11/10 A2992 RMK A01 T01110104  RH  096%=      5-min Rain = 0
KCL2 161949Z 35013KT 11/10 A2992 RMK A01 T01100104  RH  096%=      5-min Rain = 0
KCL2 161950Z 35013G18KT 11/10 A2992 RMK A01 T01100104  RH  096%=      5-min Rain = 0
KCL2 161951Z 33014KT 11/10 A2992 RMK A01 T01100104  RH  096%=      5-min Rain = 0
KCL2 161952Z 34016KT 11/10 A2992 RMK A01 T01100103  RH  095%=      5-min Rain = 0
KCL2 161953Z 33011KT 11/10 A2992 RMK A01 T01110103  RH  095%=      5-min Rain = 0
KCL2 161954Z 33013KT 11/10 A2992 RMK A01 T01110104  RH  096%=      5-min Rain = 0
KCL2 161955Z 33015G20KT 11/10 A2992 RMK A01 T01100103  RH  095%=      5-min Rain = 0
KCL2 161956Z 34013KT 11/10 A2992 RMK A01 T01110104  RH  095%=      5-min Rain = 0
KCL2 161957Z 34010KT 11/10 A2992 RMK A01 T01100103  RH  095%=      5-min Rain = 0
KCL2 161958Z 34012G17KT 11/10 A2992 RMK A01 T01110104  RH  096%=      5-min Rain = 0
KCL2 161959Z 35012KT 11/10 A2992 RMK A01 T01110103  RH  095%=      5-min Rain = 0
KCL2 162000Z 34012KT 11/10 A2992 RMK A01 T01110103  RH  095%=      5-min Rain = 0
KCL2 162001Z 34012KT 11/10 A2992 RMK A01 T01100103  RH  095%=      5-min Rain = 0
KCL2 162002Z 35010KT 11/10 A2992 RMK A01 T01100103  RH  095%=      5-min Rain = 0
KCL2 162003Z 35010KT 11/10 A2992 RMK A01 T01100103  RH  096%=      5-min Rain = 0
KCL2 162004Z 34012G17KT 11/10 A2992 RMK A01 T01100104  RH  096%=      5-min Rain = 0
KCL2 162005Z 34014KT 11/10 A2992 RMK A01 T01100102  RH  095%=      5-min Rain = 0
KCL2 162006Z 34013G22KT 11/10 A2992 RMK A01 T01100102  RH  095%=      5-min Rain = 0
KCL2 162007Z 35016KT 11/10 A2992 RMK A01 T01090102  RH  095%=      5-min Rain = 0
KCL2 162008Z 35013KT 11/10 A2992 RMK A01 T01090101  RH  095%=      5-min Rain = 0
KCL2 162009Z 35012G18KT 11/10 A2992 RMK A01 T01090102  RH  095%=      5-min Rain = 0
KCL2 162010Z 34016KT 11/10 A2992 RMK A01 T01090102  RH  095%=      5-min Rain = 0
KCL2 162011Z 35012KT 11/10 A2992 RMK A01 T01090100  RH  094%=      5-min Rain = 0
KCL2 162012Z 35014KT 11/10 A2992 RMK A01 T01090101  RH  095%=      5-min Rain = 0
KCL2 162013Z 35017KT 11/10 A2992 RMK A01 T01100101  RH  094%=      5-min Rain = 0
KCL2 162014Z 34015KT 11/10 A2992 RMK A01 T01090099  RH  094%=      5-min Rain = 0
KCL2 162015Z 35011KT 11/10 A2992 RMK A01 T01090099  RH  094%=      5-min Rain = 0
KCL2 162016Z 35014G19KT 11/10 A2992 RMK A01 T01090100  RH  094%=      5-min Rain = 0
KCL2 162017Z 34016KT 11/10 A2992 RMK A01 T01100100  RH  094%=      5-min Rain = 0
KCL2 162018Z 35014KT 11/10 A2992 RMK A01 T01090099  RH  093%=      5-min Rain = 0
KCL2 162019Z 35015KT 11/10 A2992 RMK A01 T01100100  RH  094%=      5-min Rain = 0
KCL2 162020Z 35018KT 11/10 A2992 RMK A01 T01100099  RH  093%=      5-min Rain = 0
KCL2 162021Z 35017KT 11/10 A2992 RMK A01 T01090098  RH  093%=      5-min Rain = 0
KCL2 162022Z 35015G20KT 11/10 A2992 RMK A01 T01090098  RH  093%=      5-min Rain = 0
KCL2 162023Z 35017KT 11/10 A2992 RMK A01 T01080098  RH  093%=      5-min Rain = 0
KCL2 162024Z 34014KT 11/10 A2992 RMK A01 T01080098  RH  093%=      5-min Rain = 0
KCL2 162025Z 34013KT 11/10 A2992 RMK A01 T01080098  RH  094%=      5-min Rain = 0
KCL2 162026Z 35012KT 11/10 A2992 RMK A01 T01080099  RH  094%=      5-min Rain = 0
KCL2 162027Z 34012KT 11/10 A2992 RMK A01 T01080099  RH  094%=      5-min Rain = 0
KCL2 162028Z 33012KT 11/10 A2992 RMK A01 T01080099  RH  094%=      5-min Rain = 0
KCL2 162029Z 34015G20KT 11/10 A2992 RMK A01 T01080099  RH  094%=      5-min Rain = 0
KCL2 162030Z 34017KT 11/10 A2992 RMK A01 T01080098  RH  094%=      5-min Rain = 0
KCL2 162031Z 34016KT 11/10 A2992 RMK A01 T01080097  RH  093%=      5-min Rain = 0
KCL2 162032Z 35016KT 11/10 A2992 RMK A01 T01080097  RH  093%=      5-min Rain = 0
KCL2 162033Z 35015KT 11/10 A2992 RMK A01 T01070096  RH  093%=      5-min Rain = 0
KCL2 162034Z 34015KT 11/10 A2991 RMK A01 T01070096  RH  093%=      5-min Rain = 0
KCL2 162035Z 34016KT 11/10 A2991 RMK A01 T01070095  RH  093%=      5-min Rain = 0
KCL2 162036Z 33017KT 11/10 A2991 RMK A01 T01070095  RH  093%=      5-min Rain = 0
KCL2 162037Z 33015KT 11/10 A2991 RMK A01 T01070096  RH  093%=      5-min Rain = 0
KCL2 162038Z 33015KT 11/10 A2991 RMK A01 T01070095  RH  093%=      5-min Rain = 0
KCL2 162039Z 34014KT 11/10 A2991 RMK A01 T01060096  RH  093%=      5-min Rain = 0
KCL2 162040Z 34016KT 11/10 A2991 RMK A01 T01060096  RH  093%=      5-min Rain = 0
KCL2 162041Z 34018KT 11/10 A2991 RMK A01 T01060096  RH  093%=      5-min Rain = 0
KCL2 162042Z 34018KT 11/10 A2991 RMK A01 T01060095  RH  093%=      5-min Rain = 0
KCL2 162043Z 34018KT 11/09 A2991 RMK A01 T01050094  RH  093%=      5-min Rain = 0
KCL2 162044Z 35016KT 11/09 A2991 RMK A01 T01050094  RH  093%=      5-min Rain = 0
KCL2 162045Z 34015KT 11/09 A2991 RMK A01 T01050094  RH  093%=      5-min Rain = 0
KCL2 162046Z 34016KT 11/09 A2991 RMK A01 T01050094  RH  093%=      5-min Rain = 0
KCL2 162047Z 35013KT 10/09 A2991 RMK A01 T01040093  RH  093%=      5-min Rain = 0
KCL2 162048Z 34015KT 11/09 A2991 RMK A01 T01050094  RH  093%=      5-min Rain = 0
KCL2 162049Z 35015KT 11/09 A2991 RMK A01 T01050093  RH  093%=      5-min Rain = 0
KCL2 162050Z 34015KT 11/09 A2991 RMK A01 T01050094  RH  093%=      5-min Rain = 0
KCL2 162051Z 34016KT 11/09 A2991 RMK A01 T01050094  RH  092%=      5-min Rain = 0
KCL2 162052Z 35015G20KT 11/09 A2991 RMK A01 T01050093  RH  092%=      5-min Rain = 0
KCL2 162053Z 36013KT 11/09 A2991 RMK A01 T01060094  RH  092%=      5-min Rain = 0
KCL2 162054Z 35014KT 11/10 A2991 RMK A01 T01070095  RH  092%=      5-min Rain = 0
KCL2 162055Z 35015G20KT 11/10 A2991 RMK A01 T01080095  RH  092%=      5-min Rain = 0
KCL2 162056Z 35014G19KT 11/09 A2991 RMK A01 T01080094  RH  091%=      5-min Rain = 0
KCL2 162057Z 35015KT 11/09 A2991 RMK A01 T01080094  RH  091%=      5-min Rain = 0
KCL2 162058Z 36016KT 11/09 A2992 RMK A01 T01090094  RH  090%=      5-min Rain = 0
KCL2 162059Z 34015KT 11/09 A2991 RMK A01 T01080092  RH  090%=      5-min Rain = 0
KCL2 162100Z 35013KT 11/09 A2991 RMK A01 T01090094  RH  090%=      5-min Rain = 0
KCL2 162101Z 35016G24KT 11/09 A2992 RMK A01 T01090094  RH  091%=      5-min Rain = 0
KCL2 162102Z 34018KT 11/09 A2992 RMK A01 T01070092  RH  090%=      5-min Rain = 0
KCL2 162103Z 34018G23KT 11/09 A2991 RMK A01 T01070091  RH  090%=      5-min Rain = 0
KCL2 162104Z 34018KT 11/09 A2992 RMK A01 T01060090  RH  090%=      5-min Rain = 0
KCL2 162105Z 34013KT 11/09 A2992 RMK A01 T01060091  RH  090%=      5-min Rain = 0
KCL2 162106Z 34016KT 11/09 A2992 RMK A01 T01060091  RH  091%=      5-min Rain = 0
KCL2 162107Z 34016KT 11/09 A2992 RMK A01 T01060091  RH  090%=      5-min Rain = 0
KCL2 162108Z 35015KT 11/09 A2992 RMK A01 T01060091  RH  090%=      5-min Rain = 0
KCL2 162109Z 34014KT 11/09 A2992 RMK A01 T01070091  RH  090%=      5-min Rain = 0
KCL2 162110Z 34016KT 11/09 A2992 RMK A01 T01070091  RH  090%=      5-min Rain = 0
KCL2 162111Z 35014KT 11/09 A2992 RMK A01 T01070091  RH  090%=      5-min Rain = 0
KCL2 162112Z 35013KT 11/09 A2992 RMK A01 T01070092  RH  090%=      5-min Rain = 0
KCL2 162113Z 35017KT 11/09 A2992 RMK A01 T01080092  RH  090%=      5-min Rain = 0
KCL2 162114Z 35012KT 11/09 A2992 RMK A01 T01080092  RH  089%=      5-min Rain = 0
KCL2 162115Z 34010KT 11/09 A2992 RMK A01 T01090094  RH  090%=      5-min Rain = 0
KCL2 162116Z 34011KT 11/10 A2992 RMK A01 T01100095  RH  090%=      5-min Rain = 0
KCL2 162117Z 34012KT 11/09 A2992 RMK A01 T01100094  RH  090%=      5-min Rain = 0
KCL2 162118Z 34013KT 11/09 A2992 RMK A01 T01100093  RH  089%=      5-min Rain = 0
KCL2 162119Z 35013KT 11/09 A2992 RMK A01 T01110094  RH  089%=      5-min Rain = 0
KCL2 162120Z 34013G18KT 11/09 A2992 RMK A01 T01110094  RH  090%=      5-min Rain = 0
KCL2 162121Z 34014KT 11/09 A2992 RMK A01 T01110093  RH  089%=      5-min Rain = 0
KCL2 162122Z 34015G21KT 11/09 A2992 RMK A01 T01110092  RH  088%=      5-min Rain = 0
KCL2 162123Z 34018KT 11/09 A2992 RMK A01 T01100091  RH  088%=      5-min Rain = 0
KCL2 162124Z 34016KT 11/09 A2992 RMK A01 T01100091  RH  088%=      5-min Rain = 0
KCL2 162125Z 34014KT 11/09 A2992 RMK A01 T01100091  RH  088%=      5-min Rain = 0
KCL2 162126Z 34015G20KT 11/09 A2992 RMK A01 T01100091  RH  088%=      5-min Rain = 0
KCL2 162127Z 35011KT 11/09 A2992 RMK A01 T01100092  RH  088%=      5-min Rain = 0
KCL2 162128Z 35014KT 11/09 A2992 RMK A01 T01100092  RH  089%=      5-min Rain = 0
KCL2 162129Z 00015KT 11/09 A2992 RMK A01 T01100090  RH  088%=      5-min Rain = 0
KCL2 162130Z 35012KT 11/09 A2992 RMK A01 T01110090  RH  087%=      5-min Rain = 0
KCL2 162131Z 35012KT 11/09 A2992 RMK A01 T01120092  RH  088%=      5-min Rain = 0
KCL2 162132Z 35015KT 11/09 A2992 RMK A01 T01120092  RH  087%=      5-min Rain = 0
KCL2 162133Z 00015KT 11/09 A2992 RMK A01 T01120092  RH  087%=      5-min Rain = 0
KCL2 162134Z 36014G19KT 11/09 A2992 RMK A01 T01130092  RH  087%=      5-min Rain = 0
KCL2 162135Z 35014KT 11/09 A2992 RMK A01 T01130092  RH  087%=      5-min Rain = 0
KCL2 162136Z 35012KT 11/09 A2992 RMK A01 T01130091  RH  086%=      5-min Rain = 0
KCL2 162137Z 35015KT 11/09 A2993 RMK A01 T01130092  RH  087%=      5-min Rain = 0
KCL2 162138Z 35013KT 11/09 A2993 RMK A01 T01130092  RH  087%=      5-min Rain = 0
KCL2 162139Z 35014KT 11/09 A2992 RMK A01 T01130091  RH  086%=      5-min Rain = 0
KCL2 162140Z 35015KT 11/09 A2992 RMK A01 T01130091  RH  086%=      5-min Rain = 0
KCL2 162141Z 34015KT 11/09 A2993 RMK A01 T01130092  RH  087%=      5-min Rain = 0
KCL2 162142Z 35014KT 11/09 A2993 RMK A01 T01130092  RH  087%=      5-min Rain = 0
KCL2 162143Z 35013KT 11/09 A2993 RMK A01 T01130092  RH  087%=      5-min Rain = 0
KCL2 162144Z 36013KT 11/09 A2992 RMK A01 T01130092  RH  087%=      5-min Rain = 0
KCL2 162145Z 35014KT 11/09 A2992 RMK A01 T01130092  RH  087%=      5-min Rain = 0
KCL2 162146Z 34014KT 11/09 A2992 RMK A01 T01140092  RH  086%=      5-min Rain = 0
KCL2 162147Z 35012KT 11/09 A2993 RMK A01 T01140093  RH  087%=      5-min Rain = 0
KCL2 162148Z 35011KT 12/09 A2993 RMK A01 T01150094  RH  087%=      5-min Rain = 0
KCL2 162149Z 36010KT 12/09 A2992 RMK A01 T01150094  RH  087%=      5-min Rain = 0
KCL2 162150Z 36011KT 12/09 A2992 RMK A01 T01150093  RH  086%=      5-min Rain = 0
KCL2 162151Z 35012KT 12/09 A2992 RMK A01 T01160094  RH  087%=      5-min Rain = 0
KCL2 162152Z 35013KT 12/09 A2993 RMK A01 T01160093  RH  086%=      5-min Rain = 0
KCL2 162153Z 34012KT 12/09 A2993 RMK A01 T01160094  RH  086%=      5-min Rain = 0
KCL2 162154Z 35014KT 12/09 A2992 RMK A01 T01160093  RH  086%=      5-min Rain = 0
KCL2 162155Z 00012KT 12/09 A2992 RMK A01 T01160093  RH  086%=      5-min Rain = 0
KCL2 162156Z 36012KT 12/09 A2992 RMK A01 T01170094  RH  086%=      5-min Rain = 0
KCL2 162157Z 35015KT 12/09 A2992 RMK A01 T01170094  RH  086%=      5-min Rain = 0
KCL2 162158Z 35016KT 12/09 A2992 RMK A01 T01170092  RH  085%=      5-min Rain = 0
KCL2 162159Z 35015KT 12/09 A2992 RMK A01 T01160092  RH  085%=      5-min Rain = 0
KCL2 162200Z 35016KT 12/09 A2993 RMK A01 T01170092  RH  085%=      5-min Rain = 0
KCL2 162201Z 35013KT 12/09 A2993 RMK A01 T01160092  RH  085%=      5-min Rain = 0
KCL2 162202Z 35014KT 12/09 A2993 RMK A01 T01170093  RH  085%=      5-min Rain = 0
KCL2 162203Z 35016G21KT 12/09 A2993 RMK A01 T01170091  RH  084%=      5-min Rain = 0
KCL2 162204Z 35015KT 12/09 A2993 RMK A01 T01170091  RH  084%=      5-min Rain = 0
KCL2 162205Z 00014KT 12/09 A2992 RMK A01 T01170093  RH  085%=      5-min Rain = 0
KCL2 162206Z 00015G20KT 12/09 A2992 RMK A01 T01170092  RH  085%=      5-min Rain = 0
KCL2 162207Z 00015KT 12/09 A2992 RMK A01 T01170092  RH  084%=      5-min Rain = 0
KCL2 162208Z 35017G22KT 12/09 A2992 RMK A01 T01170092  RH  085%=      5-min Rain = 0
KCL2 162209Z 35018KT 12/09 A2992 RMK A01 T01180091  RH  084%=      5-min Rain = 0
KCL2 162210Z 35014KT 12/09 A2992 RMK A01 T01180092  RH  084%=      5-min Rain = 0
KCL2 162211Z 35015KT 12/09 A2992 RMK A01 T01180091  RH  084%=      5-min Rain = 0
KCL2 162212Z 35011KT 12/09 A2992 RMK A01 T01180092  RH  084%=      5-min Rain = 0
KCL2 162213Z 34014KT 12/09 A2992 RMK A01 T01180094  RH  085%=      5-min Rain = 0
KCL2 162214Z 35012KT 12/09 A2992 RMK A01 T01180093  RH  085%=      5-min Rain = 0
KCL2 162215Z 35011KT 12/09 A2993 RMK A01 T01180093  RH  085%=      5-min Rain = 0
KCL2 162216Z 34016KT 12/09 A2993 RMK A01 T01180093  RH  084%=      5-min Rain = 0
KCL2 162217Z 35012KT 12/09 A2993 RMK A01 T01190093  RH  084%=      5-min Rain = 0
KCL2 162218Z 35013KT 12/09 A2993 RMK A01 T01180092  RH  084%=      5-min Rain = 0
KCL2 162219Z 35016KT 12/09 A2993 RMK A01 T01180092  RH  084%=      5-min Rain = 0
KCL2 162220Z 34013KT 12/09 A2993 RMK A01 T01170092  RH  085%=      5-min Rain = 0
KCL2 162221Z 34013KT 12/09 A2992 RMK A01 T01170092  RH  085%=      5-min Rain = 0
KCL2 162222Z 34014KT 12/09 A2993 RMK A01 T01170092  RH  085%=      5-min Rain = 0
KCL2 162223Z 34012KT 12/09 A2993 RMK A01 T01160093  RH  085%=      5-min Rain = 0
KCL2 162224Z 34012KT 12/09 A2993 RMK A01 T01160093  RH  085%=      5-min Rain = 0
KCL2 162225Z 35017KT 12/09 A2993 RMK A01 T01170092  RH  085%=      5-min Rain = 0
KCL2 162226Z 35013G18KT 12/09 A2993 RMK A01 T01160092  RH  085%=      5-min Rain = 0
KCL2 162227Z 35012KT 12/09 A2993 RMK A01 T01160092  RH  085%=      5-min Rain = 0
KCL2 162228Z 36011KT 12/09 A2993 RMK A01 T01160091  RH  085%=      5-min Rain = 0
KCL2 162229Z 36012KT 12/09 A2993 RMK A01 T01170092  RH  085%=      5-min Rain = 0
KCL2 162230Z 36014KT 12/09 A2993 RMK A01 T01170091  RH  084%=      5-min Rain = 0
KCL2 162231Z 35016KT 12/09 A2993 RMK A01 T01170090  RH  084%=      5-min Rain = 0
KCL2 162232Z 35015KT 12/09 A2993 RMK A01 T01170089  RH  083%=      5-min Rain = 0
KCL2 162233Z 35012KT 12/09 A2994 RMK A01 T01170090  RH  084%=      5-min Rain = 0
KCL2 162234Z 35009KT 12/09 A2993 RMK A01 T01170091  RH  084%=      5-min Rain = 0
KCL2 162235Z 35014G19KT 12/09 A2993 RMK A01 T01180091  RH  084%=      5-min Rain = 0
KCL2 162236Z 34015KT 12/09 A2994 RMK A01 T01180090  RH  083%=      5-min Rain = 0
KCL2 162237Z 34013KT 12/09 A2994 RMK A01 T01180090  RH  083%=      5-min Rain = 0
KCL2 162238Z 35013KT 12/09 A2994 RMK A01 T01180091  RH  083%=      5-min Rain = 0
KCL2 162239Z 35013G19KT 12/09 A2993 RMK A01 T01190091  RH  083%=      5-min Rain = 0
KCL2 162240Z 00015KT 12/09 A2993 RMK A01 T01190091  RH  083%=      5-min Rain = 0
KCL2 162241Z 00012KT 12/09 A2993 RMK A01 T01190091  RH  083%=      5-min Rain = 0
KCL2 162242Z 36011KT 12/09 A2993 RMK A01 T01200092  RH  083%=      5-min Rain = 0
KCL2 162243Z 35010KT 12/09 A2993 RMK A01 T01200094  RH  084%=      5-min Rain = 0
KCL2 162244Z 34015KT 12/09 A2993 RMK A01 T01210093  RH  083%=      5-min Rain = 0
KCL2 162245Z 34013KT 12/09 A2994 RMK A01 T01200092  RH  083%=      5-min Rain = 0
KCL2 162246Z 35014KT 12/09 A2994 RMK A01 T01200092  RH  083%=      5-min Rain = 0
KCL2 162247Z 34013KT 12/09 A2994 RMK A01 T01210092  RH  083%=      5-min Rain = 0
KCL2 162248Z 34010G15KT 12/09 A2994 RMK A01 T01210093  RH  083%=      5-min Rain = 0
KCL2 162249Z 35013KT 12/09 A2994 RMK A01 T01210093  RH  083%=      5-min Rain = 0
KCL2 162250Z 34012KT 12/09 A2994 RMK A01 T01210093  RH  083%=      5-min Rain = 0
KCL2 162251Z 34012KT 12/09 A2994 RMK A01 T01210093  RH  083%=      5-min Rain = 0
KCL2 162252Z 34013KT 12/09 A2994 RMK A01 T01210093  RH  083%=      5-min Rain = 0
KCL2 162253Z 34014KT 12/09 A2994 RMK A01 T01200093  RH  083%=      5-min Rain = 0
KCL2 162254Z 34013KT 12/09 A2994 RMK A01 T01200092  RH  083%=      5-min Rain = 0
KCL2 162255Z 34016KT 12/09 A2994 RMK A01 T01190092  RH  084%=      5-min Rain = 0
KCL2 162256Z 34015KT 12/09 A2994 RMK A01 T01190091  RH  083%=      5-min Rain = 0
KCL2 162257Z 34013KT 12/09 A2994 RMK A01 T01180091  RH  083%=      5-min Rain = 0
KCL2 162258Z 35014KT 12/09 A2994 RMK A01 T01180091  RH  083%=      5-min Rain = 0
KCL2 162259Z 35016KT 12/09 A2994 RMK A01 T01180090  RH  083%=      5-min Rain = 0
KCL2 162300Z 35015KT 12/09 A2993 RMK A01 T01180090  RH  083%=      5-min Rain = 0
KCL2 162301Z 35011KT 12/09 A2993 RMK A01 T01180090  RH  083%=      5-min Rain = 0
KCL2 162302Z 34015KT 12/09 A2994 RMK A01 T01180091  RH  084%=      5-min Rain = 0
KCL2 162303Z 34013KT 12/09 A2994 RMK A01 T01180090  RH  083%=      5-min Rain = 0
KCL2 162304Z 35015KT 12/09 A2994 RMK A01 T01180090  RH  083%=      5-min Rain = 0
KCL2 162305Z 35014KT 12/09 A2994 RMK A01 T01180090  RH  083%=      5-min Rain = 0
KCL2 162306Z 35013KT 12/09 A2994 RMK A01 T01180090  RH  083%=      5-min Rain = 0
KCL2 162307Z 35014KT 12/09 A2993 RMK A01 T01190091  RH  083%=      5-min Rain = 0
KCL2 162308Z 36013KT 12/09 A2993 RMK A01 T01190091  RH  083%=      5-min Rain = 0
KCL2 162309Z 36013KT 12/09 A2993 RMK A01 T01190091  RH  083%=      5-min Rain = 0
KCL2 162310Z 36013KT 12/09 A2993 RMK A01 T01190091  RH  083%=      5-min Rain = 0
KCL2 162311Z 36014KT 12/09 A2993 RMK A01 T01190091  RH  083%=      5-min Rain = 0
KCL2 162312Z 00011KT 12/09 A2993 RMK A01 T01190091  RH  083%=      5-min Rain = 0
KCL2 162313Z 35011KT 12/09 A2993 RMK A01 T01190092  RH  083%=      5-min Rain = 0
KCL2 162314Z 34012KT 12/09 A2994 RMK A01 T01200092  RH  083%=      5-min Rain = 0
KCL2 162315Z 35010KT 12/09 A2994 RMK A01 T01200091  RH  083%=      5-min Rain = 0
KCL2 162316Z 35009KT 12/09 A2994 RMK A01 T01190091  RH  083%=      5-min Rain = 0
KCL2 162317Z 00008KT 12/09 A2993 RMK A01 T01200093  RH  084%=      5-min Rain = 0
KCL2 162318Z 01010KT 12/09 A2993 RMK A01 T01200093  RH  083%=      5-min Rain = 0
KCL2 162319Z 00009KT 12/09 A2993 RMK A01 T01200091  RH  082%=      5-min Rain = 0
KCL2 162320Z 36008KT 12/09 A2993 RMK A01 T01200092  RH  083%=      5-min Rain = 0
KCL2 162321Z 36009KT 12/09 A2993 RMK A01 T01210094  RH  083%=      5-min Rain = 0
KCL2 162322Z 01010KT 12/09 A2993 RMK A01 T01210093  RH  083%=      5-min Rain = 0
KCL2 162323Z 01012KT 12/09 A2993 RMK A01 T01210092  RH  082%=      5-min Rain = 0
KCL2 162324Z 36013KT 12/09 A2993 RMK A01 T01210090  RH  082%=      5-min Rain = 0
KCL2 162325Z 35011KT 12/09 A2994 RMK A01 T01210090  RH  081%=      5-min Rain = 0
KCL2 162326Z 36009KT 12/09 A2994 RMK A01 T01210090  RH  082%=      5-min Rain = 0
KCL2 162327Z 36008KT 12/09 A2994 RMK A01 T01210092  RH  082%=      5-min Rain = 0
KCL2 162328Z 36008KT 12/09 A2994 RMK A01 T01210092  RH  082%=      5-min Rain = 0
KCL2 162329Z 36008KT 12/09 A2994 RMK A01 T01210092  RH  082%=      5-min Rain = 0
KCL2 162330Z 35014KT 12/09 A2994 RMK A01 T01210091  RH  082%=      5-min Rain = 0
KCL2 162331Z 35013KT 12/09 A2994 RMK A01 T01210089  RH  081%=      5-min Rain = 0
KCL2 162332Z 35010KT 12/09 A2994 RMK A01 T01220091  RH  082%=      5-min Rain = 0
KCL2 162333Z 36010KT 12/09 A2995 RMK A01 T01220092  RH  082%=      5-min Rain = 0
KCL2 162334Z 35011KT 12/09 A2994 RMK A01 T01220092  RH  082%=      5-min Rain = 0
KCL2 162335Z 36011G16KT 12/09 A2994 RMK A01 T01220093  RH  082%=      5-min Rain = 0
KCL2 162336Z 36013KT 12/09 A2994 RMK A01 T01220091  RH  081%=      5-min Rain = 0
KCL2 162337Z 35012KT 12/09 A2994 RMK A01 T01220092  RH  081%=      5-min Rain = 0
KCL2 162338Z 35012KT 12/09 A2994 RMK A01 T01230090  RH  081%=      5-min Rain = 0
KCL2 162339Z 34012KT 12/09 A2994 RMK A01 T01230090  RH  081%=      5-min Rain = 0
KCL2 162340Z 35012KT 12/09 A2994 RMK A01 T01230090  RH  080%=      5-min Rain = 0
KCL2 162341Z 34012KT 12/09 A2995 RMK A01 T01230091  RH  081%=      5-min Rain = 0
KCL2 162342Z 35012KT 12/09 A2995 RMK A01 T01230090  RH  080%=      5-min Rain = 0
KCL2 162343Z 34010KT 12/09 A2995 RMK A01 T01220089  RH  080%=      5-min Rain = 0
KCL2 162344Z 34014G19KT 12/09 A2995 RMK A01 T01220089  RH  080%=      5-min Rain = 0
KCL2 162345Z 34016KT 12/09 A2995 RMK A01 T01220088  RH  080%=      5-min Rain = 0
KCL2 162346Z 35014KT 12/09 A2995 RMK A01 T01210088  RH  080%=      5-min Rain = 0
KCL2 162347Z 35015KT 12/09 A2995 RMK A01 T01200088  RH  080%=      5-min Rain = 0
KCL2 162348Z 35016KT 12/09 A2994 RMK A01 T01200087  RH  080%=      5-min Rain = 0
KCL2 162349Z 35016KT 12/09 A2994 RMK A01 T01200086  RH  080%=      5-min Rain = 0
KCL2 162350Z 36011KT 12/09 A2994 RMK A01 T01200087  RH  080%=      5-min Rain = 0
KCL2 162351Z 35012KT 12/09 A2994 RMK A01 T01200088  RH  081%=      5-min Rain = 0
KCL2 162352Z 35013KT 12/09 A2995 RMK A01 T01200088  RH  081%=      5-min Rain = 0
KCL2 162353Z 35016KT 12/09 A2995 RMK A01 T01200087  RH  080%=      5-min Rain = 0
KCL2 162354Z 35012KT 12/09 A2995 RMK A01 T01200087  RH  080%=      5-min Rain = 0
KCL2 162355Z 35012G17KT 12/09 A2995 RMK A01 T01200087  RH  081%=      5-min Rain = 0
KCL2 162356Z 35016KT 12/09 A2994 RMK A01 T01200087  RH  080%=      5-min Rain = 0
KCL2 162357Z 35015KT 12/09 A2995 RMK A01 T01200086  RH  080%=      5-min Rain = 0
KCL2 162358Z 35016KT 12/09 A2995 RMK A01 T01200086  RH  080%=      5-min Rain = 0
KCL2 162359Z 35015KT 12/09 A2995 RMK A01 T01200086  RH  080%=      5-min Rain = 0
KCL2 170000Z 35016KT 12/09 A2995 RMK A01 T01200086  RH  080%=      5-min Rain = 0
KCL2 170001Z 35015KT 12/09 A2995 RMK A01 T01200085  RH  079%=      5-min Rain = 0
KCL2 170002Z 35013KT 12/09 A2995 RMK A01 T01200086  RH  080%=      5-min Rain = 0
KCL2 170003Z 36016KT 12/09 A2995 RMK A01 T01200085  RH  079%=      5-min Rain = 0
KCL2 170004Z 36012G17KT 12/09 A2995 RMK A01 T01200085  RH  079%=      5-min Rain = 0
KCL2 170005Z 36014KT 12/09 A2995 RMK A01 T01200085  RH  079%=      5-min Rain = 0
KCL2 170006Z 35012KT 12/09 A2995 RMK A01 T01200085  RH  079%=      5-min Rain = 0
KCL2 170007Z 35012KT 12/09 A2996 RMK A01 T01190086  RH  080%=      5-min Rain = 0
KCL2 170008Z 35012KT 12/09 A2996 RMK A01 T01200087  RH  080%=      5-min Rain = 0
KCL2 170009Z 35011G16KT 12/09 A2996 RMK A01 T01200087  RH  080%=      5-min Rain = 0
KCL2 170010Z 36011KT 12/09 A2995 RMK A01 T01190087  RH  080%=      5-min Rain = 0
KCL2 170011Z 35012KT 12/09 A2995 RMK A01 T01200088  RH  081%=      5-min Rain = 0
KCL2 170012Z 35014KT 12/09 A2995 RMK A01 T01200087  RH  081%=      5-min Rain = 0
KCL2 170013Z 00011KT 12/09 A2995 RMK A01 T01200087  RH  080%=      5-min Rain = 0
KCL2 170014Z 35009KT 12/09 A2995 RMK A01 T01200088  RH  081%=      5-min Rain = 0
KCL2 170015Z 35012KT 12/09 A2995 RMK A01 T01200088  RH  081%=      5-min Rain = 0
KCL2 170016Z 36013KT 12/09 A2995 RMK A01 T01200088  RH  081%=      5-min Rain = 0
KCL2 170017Z 00012KT 12/09 A2995 RMK A01 T01190087  RH  081%=      5-min Rain = 0
KCL2 170018Z 36013KT 12/09 A2995 RMK A01 T01200088  RH  081%=      5-min Rain = 0
KCL2 170019Z 00010KT 12/09 A2995 RMK A01 T01190087  RH  080%=      5-min Rain = 0
KCL2 170020Z 00012KT 12/09 A2995 RMK A01 T01200088  RH  081%=      5-min Rain = 0
KCL2 170021Z 00011KT 12/09 A2995 RMK A01 T01200086  RH  080%=      5-min Rain = 0
KCL2 170022Z 00013KT 12/09 A2995 RMK A01 T01200086  RH  079%=      5-min Rain = 0
KCL2 170023Z 00013KT 12/09 A2995 RMK A01 T01200085  RH  079%=      5-min Rain = 0
KCL2 170024Z 00012KT 12/09 A2995 RMK A01 T01210085  RH  079%=      5-min Rain = 0
KCL2 170025Z 00011KT 12/09 A2995 RMK A01 T01210086  RH  079%=      5-min Rain = 0
KCL2 170026Z 00010KT 12/09 A2995 RMK A01 T01210087  RH  080%=      5-min Rain = 0
KCL2 170027Z 01012KT 12/09 A2995 RMK A01 T01210088  RH  080%=      5-min Rain = 0
KCL2 170028Z 36012KT 12/09 A2995 RMK A01 T01210087  RH  080%=      5-min Rain = 0
KCL2 170029Z 36014G20KT 12/09 A2995 RMK A01 T01210087  RH  080%=      5-min Rain = 0
KCL2 170030Z 00016KT 12/09 A2995 RMK A01 T01200085  RH  079%=      5-min Rain = 0
KCL2 170031Z 00013KT 12/08 A2995 RMK A01 T01200084  RH  079%=      5-min Rain = 0
KCL2 170032Z 36013G20KT 12/09 A2995 RMK A01 T01210086  RH  079%=      5-min Rain = 0
KCL2 170033Z 00015KT 12/08 A2995 RMK A01 T01210083  RH  078%=      5-min Rain = 0
KCL2 170034Z 01015KT 12/08 A2995 RMK A01 T01210082  RH  077%=      5-min Rain = 0
KCL2 170035Z 01012KT 12/08 A2995 RMK A01 T01200082  RH  077%=      5-min Rain = 0
KCL2 170036Z 00012KT 12/08 A2995 RMK A01 T01200083  RH  078%=      5-min Rain = 0
KCL2 170037Z 01014KT 12/08 A2995 RMK A01 T01210083  RH  078%=      5-min Rain = 0
KCL2 170038Z 01010KT 12/08 A2995 RMK A01 T01210084  RH  078%=      5-min Rain = 0
KCL2 170039Z 00011KT 12/08 A2995 RMK A01 T01210084  RH  078%=      5-min Rain = 0
KCL2 170040Z 01012KT 12/08 A2995 RMK A01 T01200083  RH  078%=      5-min Rain = 0
KCL2 170041Z 35012KT 12/08 A2996 RMK A01 T01200082  RH  078%=      5-min Rain = 0
KCL2 170042Z 00013G19KT 12/08 A2996 RMK A01 T01200082  RH  078%=      5-min Rain = 0
KCL2 170043Z 01013KT 12/08 A2996 RMK A01 T01200081  RH  077%=      5-min Rain = 0
KCL2 170044Z 00012KT 12/08 A2996 RMK A01 T01200082  RH  077%=      5-min Rain = 0
KCL2 170045Z 36009KT 12/08 A2996 RMK A01 T01200082  RH  078%=      5-min Rain = 0
KCL2 170046Z 00012KT 12/08 A2996 RMK A01 T01200082  RH  078%=      5-min Rain = 0
KCL2 170047Z 36015KT 12/08 A2996 RMK A01 T01200081  RH  077%=      5-min Rain = 0
KCL2 170048Z 35012KT 12/08 A2996 RMK A01 T01200081  RH  077%=      5-min Rain = 0
KCL2 170049Z 36012KT 12/08 A2996 RMK A01 T01200079  RH  076%=      5-min Rain = 0
KCL2 170050Z 36015KT 12/08 A2996 RMK A01 T01200079  RH  076%=      5-min Rain = 0
KCL2 170051Z 00015KT 12/08 A2996 RMK A01 T01200079  RH  076%=      5-min Rain = 0
KCL2 170052Z 00014KT 12/08 A2997 RMK A01 T01200079  RH  076%=      5-min Rain = 0
KCL2 170053Z 36013KT 12/08 A2997 RMK A01 T01200079  RH  076%=      5-min Rain = 0
KCL2 170054Z 35013KT 12/08 A2997 RMK A01 T01200080  RH  076%=      5-min Rain = 0
KCL2 170055Z 36010KT 12/08 A2997 RMK A01 T01200081  RH  077%=      5-min Rain = 0
KCL2 170056Z 36010KT 12/08 A2997 RMK A01 T01190081  RH  077%=      5-min Rain = 0
KCL2 170057Z 00013KT 12/08 A2997 RMK A01 T01190080  RH  077%=      5-min Rain = 0
KCL2 170058Z 00011KT 12/08 A2997 RMK A01 T01190081  RH  077%=      5-min Rain = 0
KCL2 170059Z 00012KT 12/08 A2997 RMK A01 T01190081  RH  077%=      5-min Rain = 0
KCL2 170100Z 36011KT 12/08 A2997 RMK A01 T01190081  RH  077%=      5-min Rain = 0
KCL2 170101Z 00013KT 12/08 A2997 RMK A01 T01190081  RH  077%=      5-min Rain = 0
KCL2 170102Z 00014KT 12/08 A2997 RMK A01 T01190080  RH  077%=      5-min Rain = 0
KCL2 170103Z 36011G16KT 12/08 A2997 RMK A01 T01190079  RH  077%=      5-min Rain = 0
KCL2 170104Z 00015KT 12/08 A2997 RMK A01 T01190079  RH  077%=      5-min Rain = 0
KCL2 170105Z 01016G24KT 12/08 A2997 RMK A01 T01190078  RH  076%=      5-min Rain = 0
KCL2 170106Z 01016KT 12/08 A2997 RMK A01 T01190077  RH  075%=      5-min Rain = 0
KCL2 170107Z 01013G18KT 12/08 A2997 RMK A01 T01190077  RH  076%=      5-min Rain = 0
KCL2 170108Z 00015KT 12/08 A2997 RMK A01 T01190078  RH  076%=      5-min Rain = 0
KCL2 170109Z 01014KT 12/08 A2998 RMK A01 T01190077  RH  076%=      5-min Rain = 0
KCL2 170110Z 01013KT 12/08 A2998 RMK A01 T01190076  RH  075%=      5-min Rain = 0
KCL2 170111Z 01013KT 12/08 A2998 RMK A01 T01180077  RH  076%=      5-min Rain = 0
KCL2 170112Z 01010KT 12/08 A2998 RMK A01 T01180077  RH  076%=      5-min Rain = 0
KCL2 170113Z 01012KT 12/08 A2998 RMK A01 T01170077  RH  076%=      5-min Rain = 0
KCL2 170114Z 02012KT 12/08 A2998 RMK A01 T01160075  RH  076%=      5-min Rain = 0
KCL2 170115Z 01014KT 12/08 A2998 RMK A01 T01160075  RH  076%=      5-min Rain = 0
KCL2 170116Z 01011KT 12/07 A2998 RMK A01 T01150074  RH  076%=      5-min Rain = 0
KCL2 170117Z 01013G19KT 12/07 A2998 RMK A01 T01150074  RH  076%=      5-min Rain = 0
KCL2 170118Z 02012KT 12/07 A2998 RMK A01 T01150073  RH  075%=      5-min Rain = 0
KCL2 170119Z 01015KT 11/07 A2998 RMK A01 T01140073  RH  076%=      5-min Rain = 0
KCL2 170120Z 01011KT 11/07 A2998 RMK A01 T01140071  RH  075%=      5-min Rain = 0
KCL2 170121Z 02012KT 11/07 A2998 RMK A01 T01140072  RH  076%=      5-min Rain = 0
KCL2 170122Z 02010KT 11/07 A2998 RMK A01 T01140072  RH  076%=      5-min Rain = 0
KCL2 170123Z 02010KT 11/07 A2998 RMK A01 T01130072  RH  076%=      5-min Rain = 0
KCL2 170124Z 02010KT 11/07 A2998 RMK A01 T01130072  RH  076%=      5-min Rain = 0
KCL2 170125Z 01010KT 11/07 A2999 RMK A01 T01130071  RH  076%=      5-min Rain = 0
KCL2 170126Z 01011KT 11/07 A2999 RMK A01 T01130072  RH  076%=      5-min Rain = 0
KCL2 170127Z 01011KT 11/07 A2999 RMK A01 T01120071  RH  076%=      5-min Rain = 0
KCL2 170128Z 02011KT 11/07 A2999 RMK A01 T01120071  RH  076%=      5-min Rain = 0
KCL2 170129Z 01009KT 11/07 A2999 RMK A01 T01120071  RH  076%=      5-min Rain = 0
KCL2 170130Z 01013KT 11/07 A2999 RMK A01 T01120071  RH  076%=      5-min Rain = 0
KCL2 170131Z 01014KT 11/07 A2999 RMK A01 T01120070  RH  075%=      5-min Rain = 0
KCL2 170132Z 01012KT 11/07 A2999 RMK A01 T01120069  RH  075%=      5-min Rain = 0
KCL2 170133Z 01010KT 11/07 A30 RMK A01 T01120070  RH  075%=      5-min Rain = 0
KCL2 170134Z 00013KT 11/07 A30 RMK A01 T01120070  RH  076%=      5-min Rain = 0
KCL2 170135Z 01011KT 11/07 A30 RMK A01 T01120070  RH  075%=      5-min Rain = 0
KCL2 170136Z 01013KT 11/07 A30 RMK A01 T01120070  RH  075%=      5-min Rain = 0
KCL2 170137Z 01015KT 11/07 A30 RMK A01 T01120069  RH  075%=      5-min Rain = 0
KCL2 170138Z 01012KT 11/07 A30 RMK A01 T01120069  RH  075%=      5-min Rain = 0
KCL2 170139Z 01010KT 11/07 A30 RMK A01 T01120069  RH  075%=      5-min Rain = 0
KCL2 170140Z 00011KT 11/07 A30 RMK A01 T01110070  RH  075%=      5-min Rain = 0
KCL2 170141Z 01011KT 11/07 A30 RMK A01 T01110069  RH  076%=      5-min Rain = 0
KCL2 170142Z 00010KT 11/07 A30 RMK A01 T01100070  RH  076%=      5-min Rain = 0
KCL2 170143Z 01011KT 11/07 A30 RMK A01 T01100070  RH  076%=      5-min Rain = 0
KCL2 170144Z 01013KT 11/07 A30 RMK A01 T01090070  RH  077%=      5-min Rain = 0
KCL2 170145Z 00010KT 11/07 A3001 RMK A01 T01090070  RH  076%=      5-min Rain = 0
KCL2 170146Z 00013KT 11/07 A3001 RMK A01 T01090070  RH  076%=      5-min Rain = 0
KCL2 170147Z 01012KT 11/07 A3001 RMK A01 T01090070  RH  076%=      5-min Rain = 0
KCL2 170148Z 00011G16KT 11/07 A3001 RMK A01 T01090070  RH  077%=      5-min Rain = 0
KCL2 170149Z 00013KT 11/07 A3001 RMK A01 T01090070  RH  077%=      5-min Rain = 0
KCL2 170150Z 01013KT 11/07 A3001 RMK A01 T01090069  RH  076%=      5-min Rain = 0
KCL2 170151Z 00012KT 11/07 A3001 RMK A01 T01100070  RH  076%=      5-min Rain = 0
KCL2 170152Z 01012KT 11/07 A3001 RMK A01 T01090070  RH  076%=      5-min Rain = 0
KCL2 170153Z 00012KT 11/07 A3001 RMK A01 T01090070  RH  077%=      5-min Rain = 0
KCL2 170154Z 01013KT 11/07 A3001 RMK A01 T01090069  RH  077%=      5-min Rain = 0
KCL2 170155Z 01012KT 11/07 A3001 RMK A01 T01090069  RH  076%=      5-min Rain = 0
KCL2 170156Z 01011KT 11/07 A3001 RMK A01 T01090069  RH  076%=      5-min Rain = 0
KCL2 170157Z 01013KT 11/07 A3001 RMK A01 T01090069  RH  076%=      5-min Rain = 0
KCL2 170158Z 01012KT 11/07 A3001 RMK A01 T01090069  RH  077%=      5-min Rain = 0
KCL2 170159Z 01012KT 11/07 A3001 RMK A01 T01080069  RH  077%=      5-min Rain = 0
KCL2 170200Z 01013KT 11/07 A3002 RMK A01 T01080069  RH  077%=      5-min Rain = 0
KCL2 170201Z 01013KT 11/07 A3002 RMK A01 T01080069  RH  077%=      5-min Rain = 0
KCL2 170202Z 01014KT 11/07 A3002 RMK A01 T01080069  RH  077%=      5-min Rain = 0
KCL2 170203Z 01013KT 11/07 A3002 RMK A01 T01080069  RH  077%=      5-min Rain = 0
KCL2 170204Z 01015KT 11/07 A3002 RMK A01 T01080069  RH  077%=      5-min Rain = 0
KCL2 170205Z 01013KT 11/07 A3002 RMK A01 T01080068  RH  077%=      5-min Rain = 0
KCL2 170206Z 01012KT 11/07 A3002 RMK A01 T01080069  RH  077%=      5-min Rain = 0
KCL2 170207Z 01012G17KT 11/07 A3002 RMK A01 T01070069  RH  077%=      5-min Rain = 0
KCL2 170208Z 01012KT 11/07 A3002 RMK A01 T01070069  RH  077%=      5-min Rain = 0
KCL2 170209Z 01013KT 11/07 A3002 RMK A01 T01070068  RH  077%=      5-min Rain = 0
KCL2 170210Z 01012G18KT 11/07 A3002 RMK A01 T01070068  RH  077%=      5-min Rain = 0
KCL2 170211Z 02011KT 11/07 A3002 RMK A01 T01070069  RH  077%=      5-min Rain = 0
KCL2 170212Z 02009KT 11/07 A3002 RMK A01 T01060069  RH  078%=      5-min Rain = 0
KCL2 170213Z 01011KT 11/07 A3002 RMK A01 T01060069  RH  078%=      5-min Rain = 0
KCL2 170214Z 02013G20KT 11/07 A3002 RMK A01 T01050069  RH  078%=      5-min Rain = 0
KCL2 170215Z 01013KT 11/07 A3002 RMK A01 T01050068  RH  078%=      5-min Rain = 0
KCL2 170216Z 01012KT 11/07 A3002 RMK A01 T01060068  RH  077%=      5-min Rain = 0
KCL2 170217Z 02011KT 11/07 A3002 RMK A01 T01060069  RH  078%=      5-min Rain = 0
KCL2 170218Z 02012KT 11/07 A3002 RMK A01 T01060069  RH  078%=      5-min Rain = 0
KCL2 170219Z 01010KT 11/07 A3002 RMK A01 T01050069  RH  078%=      5-min Rain = 0
KCL2 170220Z 01011KT 11/07 A3002 RMK A01 T01050068  RH  078%=      5-min Rain = 0
KCL2 170221Z 01013KT 11/07 A3002 RMK A01 T01050068  RH  078%=      5-min Rain = 0
KCL2 170222Z 01013KT 11/07 A3003 RMK A01 T01050068  RH  078%=      5-min Rain = 0
KCL2 170223Z 01013KT 11/07 A3003 RMK A01 T01050068  RH  078%=      5-min Rain = 0
KCL2 170224Z 01011KT 11/07 A3003 RMK A01 T01050068  RH  077%=      5-min Rain = 0
KCL2 170225Z 01012G17KT 11/07 A3003 RMK A01 T01050068  RH  078%=      5-min Rain = 0
KCL2 170226Z 01013KT 11/07 A3003 RMK A01 T01050068  RH  078%=      5-min Rain = 0
KCL2 170227Z 02012KT 11/07 A3003 RMK A01 T01050067  RH  077%=      5-min Rain = 0
KCL2 170228Z 01011KT 11/07 A3003 RMK A01 T01050067  RH  077%=      5-min Rain = 0
KCL2 170229Z 02009KT 11/07 A3003 RMK A01 T01050067  RH  077%=      5-min Rain = 0
KCL2 170230Z 01010KT 11/07 A3003 RMK A01 T01050068  RH  078%=      5-min Rain = 0
KCL2 170231Z 02011G16KT 11/07 A3003 RMK A01 T01050068  RH  078%=      5-min Rain = 0
KCL2 170232Z 01011KT 11/07 A3003 RMK A01 T01050068  RH  078%=      5-min Rain = 0
KCL2 170233Z 01012KT 11/07 A3003 RMK A01 T01050068  RH  078%=      5-min Rain = 0
KCL2 170234Z 02010KT 11/07 A3002 RMK A01 T01050068  RH  078%=      5-min Rain = 0
KCL2 170235Z 02013KT 10/07 A3002 RMK A01 T01040068  RH  078%=      5-min Rain = 0
KCL2 170236Z 02011KT 10/07 A3002 RMK A01 T01040067  RH  078%=      5-min Rain = 0
KCL2 170237Z 02009KT 10/07 A3002 RMK A01 T01040068  RH  078%=      5-min Rain = 0
KCL2 170238Z 02012KT 10/07 A3002 RMK A01 T01030068  RH  079%=      5-min Rain = 0
KCL2 170239Z 02011KT 10/07 A3002 RMK A01 T01030068  RH  079%=      5-min Rain = 0
KCL2 170240Z 02011KT 10/07 A3002 RMK A01 T01030068  RH  079%=      5-min Rain = 0
KCL2 170241Z 02013KT 10/07 A3002 RMK A01 T01030068  RH  079%=      5-min Rain = 0
KCL2 170242Z 02012KT 10/07 A3002 RMK A01 T01030068  RH  079%=      5-min Rain = 0
KCL2 170243Z 02014KT 10/07 A3001 RMK A01 T01030068  RH  079%=      5-min Rain = 0
KCL2 170244Z 01012KT 10/07 A3001 RMK A01 T01030068  RH  079%=      5-min Rain = 0
KCL2 170245Z 02011KT 10/07 A3001 RMK A01 T01030067  RH  079%=      5-min Rain = 0
KCL2 170246Z 02011KT 10/07 A3001 RMK A01 T01020067  RH  079%=      5-min Rain = 0
KCL2 170247Z 02012KT 10/07 A3002 RMK A01 T01020067  RH  079%=      5-min Rain = 0
KCL2 170248Z 01010KT 10/07 A3002 RMK A01 T01020067  RH  079%=      5-min Rain = 0
KCL2 170249Z 01011KT 10/07 A3002 RMK A01 T01020067  RH  079%=      5-min Rain = 0
KCL2 170250Z 01009KT 10/07 A3003 RMK A01 T01020067  RH  079%=      5-min Rain = 0
KCL2 170251Z 01011KT 10/07 A3003 RMK A01 T01020067  RH  079%=      5-min Rain = 0
KCL2 170252Z 01010KT 10/07 A3004 RMK A01 T01020067  RH  079%=      5-min Rain = 0
KCL2 170253Z 00014G19KT 10/07 A3004 RMK A01 T01020066  RH  078%=      5-min Rain = 0
KCL2 170254Z 01012KT 10/07 A3004 RMK A01 T01020065  RH  078%=      5-min Rain = 0
KCL2 170255Z 01013KT 10/07 A3004 RMK A01 T01030065  RH  077%=      5-min Rain = 0
KCL2 170256Z 01012G17KT 10/07 A3004 RMK A01 T01030065  RH  077%=      5-min Rain = 0
KCL2 170257Z 01011KT 10/07 A3004 RMK A01 T01030065  RH  077%=      5-min Rain = 0
KCL2 170258Z 01009KT 10/07 A3004 RMK A01 T01030065  RH  077%=      5-min Rain = 0
KCL2 170259Z 01010KT 10/07 A3004 RMK A01 T01030065  RH  078%=      5-min Rain = 0
KCL2 170300Z 01010KT 10/07 A3004 RMK A01 T01030066  RH  078%=      5-min Rain = 0
KCL2 170301Z 01010KT 10/07 A3004 RMK A01 T01020066  RH  078%=      5-min Rain = 0
KCL2 170302Z 01009KT 10/07 A3004 RMK A01 T01020065  RH  078%=      5-min Rain = 0
KCL2 170303Z 01008KT 10/07 A3004 RMK A01 T01020066  RH  078%=      5-min Rain = 0
KCL2 170304Z 01011KT 10/07 A3004 RMK A01 T01020065  RH  078%=      5-min Rain = 0
KCL2 170305Z 02010KT 10/06 A3005 RMK A01 T01020064  RH  077%=      5-min Rain = 0
KCL2 170306Z 02009KT 10/06 A3005 RMK A01 T01020064  RH  077%=      5-min Rain = 0
KCL2 170307Z 02010KT 10/06 A3005 RMK A01 T01020064  RH  077%=      5-min Rain = 0
KCL2 170308Z 02008KT 10/06 A3005 RMK A01 T01020064  RH  077%=      5-min Rain = 0
KCL2 170309Z 02010KT 10/07 A3005 RMK A01 T01020065  RH  078%=      5-min Rain = 0
KCL2 170310Z 02010KT 10/06 A3005 RMK A01 T01020064  RH  078%=      5-min Rain = 0
KCL2 170311Z 02009KT 10/06 A3005 RMK A01 T01020064  RH  077%=      5-min Rain = 0
KCL2 170312Z 01009KT 10/06 A3005 RMK A01 T01020064  RH  077%=      5-min Rain = 0
KCL2 170313Z 02009KT 10/06 A3005 RMK A01 T01020063  RH  077%=      5-min Rain = 0
KCL2 170314Z 02009G15KT 10/06 A3005 RMK A01 T01020064  RH  077%=      5-min Rain = 0
KCL2 170315Z 01010KT 10/06 A3005 RMK A01 T01010064  RH  077%=      5-min Rain = 0
KCL2 170316Z 02010KT 10/06 A3005 RMK A01 T01010064  RH  078%=      5-min Rain = 0
KCL2 170317Z 02011KT 10/06 A3005 RMK A01 T01010064  RH  078%=      5-min Rain = 0
KCL2 170318Z 02012KT 10/06 A3006 RMK A01 T01010063  RH  078%=      5-min Rain = 0
KCL2 170319Z 01013KT 10/06 A3006 RMK A01 T01010062  RH  077%=      5-min Rain = 0
KCL2 170320Z 02010KT 10/06 A3006 RMK A01 T01010062  RH  077%=      5-min Rain = 0
KCL2 170321Z 02008KT 10/06 A3007 RMK A01 T01010063  RH  077%=      5-min Rain = 0
KCL2 170322Z 01008KT 10/06 A3007 RMK A01 T01010063  RH  077%=      5-min Rain = 0
KCL2 170323Z 02008KT 10/06 A3007 RMK A01 T01010063  RH  077%=      5-min Rain = 0
KCL2 170324Z 02010KT 10/06 A3007 RMK A01 T01000063  RH  078%=      5-min Rain = 0
KCL2 170325Z 01011KT 10/06 A3007 RMK A01 T01000063  RH  078%=      5-min Rain = 0
KCL2 170326Z 02012KT 10/06 A3007 RMK A01 T01000063  RH  078%=      5-min Rain = 0
KCL2 170327Z 02013KT 10/06 A3007 RMK A01 T01000063  RH  077%=      5-min Rain = 0
KCL2 170328Z 02013KT 10/06 A3007 RMK A01 T01000063  RH  077%=      5-min Rain = 0
KCL2 170329Z 02010G15KT 10/06 A3007 RMK A01 T01000062  RH  077%=      5-min Rain = 0
KCL2 170330Z 01011KT 10/06 A3006 RMK A01 T01000063  RH  078%=      5-min Rain = 0
KCL2 170331Z 01012KT 10/06 A3006 RMK A01 T01000063  RH  078%=      5-min Rain = 0
KCL2 170332Z 01012KT 10/06 A3006 RMK A01 T01000063  RH  078%=      5-min Rain = 0
KCL2 170333Z 02013KT 10/06 A3005 RMK A01 T00990064  RH  078%=      5-min Rain = 0
KCL2 170334Z 02014KT 10/06 A3005 RMK A01 T00990063  RH  078%=      5-min Rain = 0
KCL2 170335Z 01013KT 10/06 A3006 RMK A01 T00990063  RH  078%=      5-min Rain = 0
KCL2 170336Z 02011G17KT 10/06 A3006 RMK A01 T00990063  RH  079%=      5-min Rain = 0
KCL2 170337Z 01009KT 10/06 A3006 RMK A01 T00980064  RH  079%=      5-min Rain = 0
KCL2 170338Z 01011KT 10/06 A3006 RMK A01 T00980064  RH  079%=      5-min Rain = 0
KCL2 170339Z 01012KT 10/06 A3006 RMK A01 T00980064  RH  079%=      5-min Rain = 0
KCL2 170340Z 01012KT 10/06 A3006 RMK A01 T00980063  RH  079%=      5-min Rain = 0
KCL2 170341Z 01011KT 10/06 A3006 RMK A01 T00980064  RH  079%=      5-min Rain = 0
KCL2 170342Z 01014KT 10/06 A3006 RMK A01 T00980064  RH  079%=      5-min Rain = 0
KCL2 170343Z 01012KT 10/06 A3006 RMK A01 T00980064  RH  079%=      5-min Rain = 0
KCL2 170344Z 02013KT 10/06 A3006 RMK A01 T00980064  RH  079%=      5-min Rain = 0
KCL2 170345Z 01013KT 10/06 A3006 RMK A01 T00980064  RH  079%=      5-min Rain = 0
KCL2 170346Z 01013KT 10/07 A3006 RMK A01 T00980065  RH  080%=      5-min Rain = 0
KCL2 170347Z 01013KT 10/07 A3006 RMK A01 T00980065  RH  080%=      5-min Rain = 0
KCL2 170348Z 01013KT 10/07 A3006 RMK A01 T00980065  RH  080%=      5-min Rain = 0
KCL2 170349Z 01014KT 10/07 A3006 RMK A01 T00980065  RH  080%=      5-min Rain = 0
KCL2 170350Z 01013KT 10/07 A3006 RMK A01 T00980065  RH  080%=      5-min Rain = 0
KCL2 170351Z 01013KT 10/06 A3006 RMK A01 T00980064  RH  080%=      5-min Rain = 0
KCL2 170352Z 01014KT 10/07 A3006 RMK A01 T00980065  RH  080%=      5-min Rain = 0
KCL2 170353Z 01012KT 10/07 A3006 RMK A01 T00980066  RH  080%=      5-min Rain = 0
KCL2 170354Z 01012KT 10/07 A3006 RMK A01 T00980066  RH  080%=      5-min Rain = 0
KCL2 170355Z 01014KT 10/07 A3006 RMK A01 T00980066  RH  080%=      5-min Rain = 0
KCL2 170356Z 01010KT 10/07 A3006 RMK A01 T00980066  RH  080%=      5-min Rain = 0
KCL2 170357Z 02012KT 10/07 A3006 RMK A01 T00980066  RH  081%=      5-min Rain = 0
KCL2 170358Z 01012KT 10/07 A3006 RMK A01 T00980066  RH  081%=      5-min Rain = 0
KCL2 170359Z 01013KT 10/07 A3006 RMK A01 T00980067  RH  081%=      5-min Rain = 0
KCL2 170400Z 01012G17KT 10/07 A3007 RMK A01 T00980066  RH  081%=      5-min Rain = 0
KCL2 170401Z 01010KT 10/07 A3007 RMK A01 T00980067  RH  081%=      5-min Rain = 0
KCL2 170402Z 00012G18KT 10/07 A3007 RMK A01 T00980067  RH  081%=      5-min Rain = 0
KCL2 170403Z 01013G18KT 10/07 A3007 RMK A01 T00970067  RH  081%=      5-min Rain = 0
KCL2 170404Z 02012KT 10/07 A3007 RMK A01 T00980067  RH  081%=      5-min Rain = 0
KCL2 170405Z 01011KT 10/07 A3007 RMK A01 T00970067  RH  081%=      5-min Rain = 0
KCL2 170406Z 01014KT 10/07 A3007 RMK A01 T00970067  RH  082%=      5-min Rain = 0
KCL2 170407Z 01013G18KT 10/07 A3007 RMK A01 T00970067  RH  082%=      5-min Rain = 0
KCL2 170408Z 01014G20KT 10/07 A3007 RMK A01 T00970067  RH  082%=      5-min Rain = 0
KCL2 170409Z 01013KT 10/07 A3007 RMK A01 T00960067  RH  082%=      5-min Rain = 0
KCL2 170410Z 01014G19KT 10/07 A3007 RMK A01 T00960068  RH  082%=      5-min Rain = 0
KCL2 170411Z 02013KT 10/07 A3007 RMK A01 T00960067  RH  082%=      5-min Rain = 0
KCL2 170412Z 02011KT 10/07 A3007 RMK A01 T00960067  RH  082%=      5-min Rain = 0
KCL2 170413Z 02013KT 10/07 A3007 RMK A01 T00960068  RH  082%=      5-min Rain = 0
KCL2 170414Z 01011KT 10/07 A3007 RMK A01 T00960068  RH  083%=      5-min Rain = 0
KCL2 170415Z 02011G16KT 10/07 A3007 RMK A01 T00960069  RH  083%=      5-min Rain = 0
KCL2 170416Z 02014KT 10/07 A3007 RMK A01 T00950068  RH  083%=      5-min Rain = 0
KCL2 170417Z 01011KT 10/07 A3007 RMK A01 T00950068  RH  083%=      5-min Rain = 0
KCL2 170418Z 01012KT 10/07 A3008 RMK A01 T00950068  RH  083%=      5-min Rain = 0
KCL2 170419Z 01011KT 10/07 A3007 RMK A01 T00950068  RH  083%=      5-min Rain = 0
KCL2 170420Z 02014KT 10/07 A3007 RMK A01 T00950068  RH  083%=      5-min Rain = 0
KCL2 170421Z 01012G17KT 10/07 A3007 RMK A01 T00950068  RH  083%=      5-min Rain = 0
KCL2 170422Z 01014KT 09/07 A3007 RMK A01 T00940068  RH  083%=      5-min Rain = 0
KCL2 170423Z 01013KT 09/07 A3007 RMK A01 T00940067  RH  083%=      5-min Rain = 0
KCL2 170424Z 01014KT 09/07 A3007 RMK A01 T00940067  RH  083%=      5-min Rain = 0
KCL2 170425Z 01017KT 09/07 A3007 RMK A01 T00940067  RH  083%=      5-min Rain = 0
KCL2 170426Z 01020G26KT 09/07 A3007 RMK A01 T00930066  RH  083%=      5-min Rain = 0
KCL2 170427Z 00018G23KT 09/07 A3007 RMK A01 T00930065  RH  082%=      5-min Rain = 0
KCL2 170428Z 01019KT 09/07 A3007 RMK A01 T00930065  RH  082%=      5-min Rain = 0
KCL2 170429Z 01018G23KT 09/07 A3007 RMK A01 T00930065  RH  082%=      5-min Rain = 0
KCL2 170430Z 01017KT 09/07 A3008 RMK A01 T00930065  RH  083%=      5-min Rain = 0
KCL2 170431Z 00020KT 09/07 A3008 RMK A01 T00920065  RH  083%=      5-min Rain = 0
KCL2 170432Z 01018KT 09/07 A3007 RMK A01 T00920065  RH  083%=      5-min Rain = 0
KCL2 170433Z 01018KT 09/07 A3007 RMK A01 T00920065  RH  083%=      5-min Rain = 0
KCL2 170434Z 01018G23KT 09/07 A3007 RMK A01 T00910065  RH  084%=      5-min Rain = 0
KCL2 170435Z 01017KT 09/07 A3007 RMK A01 T00910065  RH  084%=      5-min Rain = 0
KCL2 170436Z 02014G21KT 09/07 A3007 RMK A01 T00910066  RH  084%=      5-min Rain = 0
KCL2 170437Z 01011G16KT 09/07 A3008 RMK A01 T00910066  RH  084%=      5-min Rain = 0
KCL2 170438Z 01017KT 09/07 A3008 RMK A01 T00910066  RH  085%=      5-min Rain = 0
KCL2 170439Z 01016G21KT 09/07 A3008 RMK A01 T00900065  RH  085%=      5-min Rain = 0
KCL2 170440Z 01016KT 09/07 A3008 RMK A01 T00900066  RH  085%=      5-min Rain = 0
KCL2 170441Z 01015KT 09/07 A3008 RMK A01 T00900065  RH  085%=      5-min Rain = 0
KCL2 170442Z 02014KT 09/07 A3008 RMK A01 T00900065  RH  085%=      5-min Rain = 0
KCL2 170443Z 01014KT 09/07 A3008 RMK A01 T00900066  RH  085%=      5-min Rain = 0
KCL2 170444Z 01014KT 09/07 A3008 RMK A01 T00900066  RH  085%=      5-min Rain = 0
KCL2 170445Z 01011G16KT 09/07 A3008 RMK A01 T00900066  RH  085%=      5-min Rain = 0
KCL2 170446Z 00013KT 09/07 A3008 RMK A01 T00900066  RH  085%=      5-min Rain = 0
KCL2 170447Z 01012KT 09/07 A3009 RMK A01 T00890066  RH  085%=      5-min Rain = 0
KCL2 170448Z 36011KT 09/07 A3009 RMK A01 T00890067  RH  086%=      5-min Rain = 0
KCL2 170449Z 01013KT 09/07 A3009 RMK A01 T00890066  RH  086%=      5-min Rain = 0
KCL2 170450Z 00014KT 09/07 A301 RMK A01 T00880066  RH  086%=      5-min Rain = 0
KCL2 170451Z 01015KT 09/07 A301 RMK A01 T00880066  RH  086%=      5-min Rain = 0
KCL2 170452Z 01015KT 09/07 A301 RMK A01 T00880066  RH  086%=      5-min Rain = 0
KCL2 170453Z 01012KT 09/07 A301 RMK A01 T00880066  RH  086%=      5-min Rain = 0
KCL2 170454Z 01010KT 09/07 A301 RMK A01 T00880066  RH  086%=      5-min Rain = 0
KCL2 170455Z 01010G15KT 09/07 A301 RMK A01 T00880067  RH  087%=      5-min Rain = 0
KCL2 170456Z 02013G18KT 09/07 A301 RMK A01 T00880066  RH  087%=      5-min Rain = 0
KCL2 170457Z 01014KT 09/07 A301 RMK A01 T00880066  RH  086%=      5-min Rain = 0
KCL2 170458Z 02015KT 09/07 A301 RMK A01 T00870066  RH  086%=      5-min Rain = 0
KCL2 170459Z 01013KT 09/07 A301 RMK A01 T00870066  RH  086%=      5-min Rain = 0

Page generated in 0.0646 seconds.